Time,TemperatureF,DewpointF,PressureIn,WindDirection,WindDirectionDegrees,WindSpeedMPH,WindSpeedGustMPH,Humidity,HourlyPrecipIn,Conditions,Clouds,dailyrainin,SoftwareType,DateUTC
2013-04-29 00:00:00,55.1,31.8,29.82,SSW,203,5.6,5.6,41,0.00,,,0.00,WUHU216HW,2013-04-29 04:00:00,
2013-04-29 00:01:00,55.1,31.8,29.82,SSE,158,6.9,6.9,41,0.00,,,0.00,WUHU216HW,2013-04-29 04:01:00,
2013-04-29 00:06:00,54.9,31.6,29.82,SE,135,6.0,7.6,41,0.00,,,0.00,WUHU216HW,2013-04-29 04:06:00,
2013-04-29 00:11:00,54.7,31.4,29.82,SSE,158,6.0,7.6,41,0.00,,,0.00,WUHU216HW,2013-04-29 04:11:00,
2013-04-29 00:12:00,54.7,31.4,29.82,SSE,158,6.0,7.6,41,0.00,,,0.00,WUHU216HW,2013-04-29 04:12:00,
2013-04-29 00:16:00,54.7,31.4,29.82,SE,135,3.1,6.7,41,0.00,,,0.00,WUHU216HW,2013-04-29 04:16:00,
2013-04-29 00:17:00,54.7,31.4,29.82,SE,135,3.1,6.7,41,0.00,,,0.00,WUHU216HW,2013-04-29 04:17:00,
2013-04-29 00:21:00,54.4,31.7,29.82,South,180,2.7,6.7,42,0.00,,,0.00,WUHU216HW,2013-04-29 04:21:00,
2013-04-29 00:22:00,54.4,31.7,29.82,South,180,2.7,6.7,42,0.00,,,0.00,WUHU216HW,2013-04-29 04:22:00,
2013-04-29 00:26:00,54.4,31.7,29.82,SSE,158,2.9,5.1,42,0.00,,,0.00,WUHU216HW,2013-04-29 04:26:00,
2013-04-29 00:27:00,54.4,31.7,29.82,SSE,158,2.9,5.1,42,0.00,,,0.00,WUHU216HW,2013-04-29 04:27:00,
2013-04-29 00:32:00,54.2,31.5,29.82,SSE,158,4.0,5.4,42,0.00,,,0.00,WUHU216HW,2013-04-29 04:32:00,
2013-04-29 00:37:00,54.0,31.3,29.83,ESE,113,2.5,5.4,42,0.00,,,0.00,WUHU216HW,2013-04-29 04:37:00,
2013-04-29 00:38:00,54.0,31.9,29.83,SE,135,4.0,5.4,43,0.00,,,0.00,WUHU216HW,2013-04-29 04:38:00,
2013-04-29 00:42:00,54.0,31.3,29.83,SSE,158,4.7,7.2,42,0.00,,,0.00,WUHU216HW,2013-04-29 04:42:00,
2013-04-29 00:43:00,54.0,31.3,29.83,SSE,158,4.7,7.2,42,0.00,,,0.00,WUHU216HW,2013-04-29 04:43:00,
2013-04-29 00:47:00,54.0,31.3,29.83,SSE,158,4.5,7.2,42,0.00,,,0.00,WUHU216HW,2013-04-29 04:47:00,
2013-04-29 00:48:00,54.0,31.3,29.83,SSE,158,4.5,7.2,42,0.00,,,0.00,WUHU216HW,2013-04-29 04:48:00,
2013-04-29 00:52:00,53.8,31.1,29.83,SE,135,4.9,6.9,42,0.00,,,0.00,WUHU216HW,2013-04-29 04:52:00,
2013-04-29 00:53:00,53.8,31.1,29.83,SE,135,4.9,6.5,42,0.00,,,0.00,WUHU216HW,2013-04-29 04:53:00,
2013-04-29 00:57:00,53.8,31.1,29.83,SE,135,5.8,7.4,42,0.00,,,0.00,WUHU216HW,2013-04-29 04:57:00,
2013-04-29 00:58:00,53.8,31.1,29.83,SE,135,5.8,7.4,42,0.00,,,0.00,WUHU216HW,2013-04-29 04:58:00,
2013-04-29 01:02:00,53.6,31.0,29.83,SSE,158,4.9,7.4,42,0.00,,,0.00,WUHU216HW,2013-04-29 05:02:00,
2013-04-29 01:03:00,53.6,31.0,29.83,SSE,158,3.4,7.4,42,0.00,,,0.00,WUHU216HW,2013-04-29 05:03:00,
2013-04-29 01:04:00,53.6,31.0,29.83,SE,135,3.4,7.4,42,0.00,,,0.00,WUHU216HW,2013-04-29 05:04:00,
2013-04-29 01:07:00,53.6,31.0,29.83,South,180,3.1,6.3,42,0.00,,,0.00,WUHU216HW,2013-04-29 05:07:00,
2013-04-29 01:08:00,53.6,31.0,29.83,South,180,4.3,6.3,42,0.00,,,0.00,WUHU216HW,2013-04-29 05:08:00,
2013-04-29 01:09:00,53.6,31.0,29.83,SE,135,4.3,6.3,42,0.00,,,0.00,WUHU216HW,2013-04-29 05:09:00,
2013-04-29 01:12:00,53.6,31.0,29.83,SSE,158,5.1,5.8,42,0.00,,,0.00,WUHU216HW,2013-04-29 05:12:00,
2013-04-29 01:13:00,53.6,31.0,29.82,South,180,5.1,5.8,42,0.00,,,0.00,WUHU216HW,2013-04-29 05:13:00,
2013-04-29 01:14:00,53.5,30.9,29.83,South,180,3.4,5.8,42,0.00,,,0.00,WUHU216HW,2013-04-29 05:14:00,
2013-04-29 01:17:00,53.5,30.9,29.83,SE,135,3.8,5.1,42,0.00,,,0.00,WUHU216HW,2013-04-29 05:17:00,
2013-04-29 01:18:00,53.5,31.4,29.82,SSE,158,4.7,5.1,43,0.00,,,0.00,WUHU216HW,2013-04-29 05:18:00,
2013-04-29 01:19:00,53.5,31.4,29.82,South,180,3.4,5.1,43,0.00,,,0.00,WUHU216HW,2013-04-29 05:19:00,
2013-04-29 01:23:00,53.3,31.2,29.83,SSW,203,3.6,5.6,43,0.00,,,0.00,WUHU216HW,2013-04-29 05:23:00,
2013-04-29 01:24:00,53.3,31.2,29.82,South,180,4.0,5.6,43,0.00,,,0.00,WUHU216HW,2013-04-29 05:24:00,
2013-04-29 01:25:00,53.3,31.2,29.83,South,180,2.9,5.6,43,0.00,,,0.00,WUHU216HW,2013-04-29 05:25:00,
2013-04-29 01:28:00,53.1,31.1,29.82,South,180,4.7,5.6,43,0.00,,,0.00,WUHU216HW,2013-04-29 05:28:00,
2013-04-29 01:29:00,53.1,31.1,29.82,South,180,4.7,5.6,43,0.00,,,0.00,WUHU216HW,2013-04-29 05:29:00,
2013-04-29 01:30:00,52.9,30.9,29.82,SSW,203,2.9,5.6,43,0.00,,,0.00,WUHU216HW,2013-04-29 05:30:00,
2013-04-29 01:33:00,52.9,30.9,29.82,SSW,203,4.3,4.7,43,0.00,,,0.00,WUHU216HW,2013-04-29 05:33:00,
2013-04-29 01:34:00,52.9,30.9,29.82,SSW,203,3.8,4.7,43,0.00,,,0.00,WUHU216HW,2013-04-29 05:34:00,
2013-04-29 01:35:00,52.9,30.9,29.82,SSW,203,4.5,4.7,43,0.00,,,0.00,WUHU216HW,2013-04-29 05:35:00,
2013-04-29 01:38:00,52.7,30.8,29.82,SSE,158,4.0,4.7,43,0.00,,,0.00,WUHU216HW,2013-04-29 05:38:00,
2013-04-29 01:39:00,52.7,30.8,29.82,SSE,158,2.5,4.5,43,0.00,,,0.00,WUHU216HW,2013-04-29 05:39:00,
2013-04-29 01:40:00,52.7,30.8,29.83,SSW,203,2.5,4.5,43,0.00,,,0.00,WUHU216HW,2013-04-29 05:40:00,
2013-04-29 01:43:00,52.6,30.6,29.82,SSW,203,2.5,4.5,43,0.00,,,0.00,WUHU216HW,2013-04-29 05:43:00,
2013-04-29 01:44:00,52.6,30.6,29.82,South,180,3.4,4.5,43,0.00,,,0.00,WUHU216HW,2013-04-29 05:44:00,
2013-04-29 01:46:00,52.6,30.6,29.82,SSW,203,2.5,4.0,43,0.00,,,0.00,WUHU216HW,2013-04-29 05:46:00,
2013-04-29 01:49:00,52.6,31.1,29.82,SSE,158,2.5,4.0,44,0.00,,,0.00,WUHU216HW,2013-04-29 05:49:00,
2013-04-29 01:51:00,52.4,30.4,29.82,SSE,158,2.0,4.0,43,0.00,,,0.00,WUHU216HW,2013-04-29 05:51:00,
2013-04-29 01:54:00,52.4,30.4,29.82,South,180,3.4,4.5,43,0.00,,,0.00,WUHU216HW,2013-04-29 05:54:00,
2013-04-29 01:55:00,52.4,30.4,29.82,South,180,3.4,4.5,43,0.00,,,0.00,WUHU216HW,2013-04-29 05:55:00,
2013-04-29 01:56:00,52.2,30.2,29.82,SSE,158,2.9,4.5,43,0.00,,,0.00,WUHU216HW,2013-04-29 05:56:00,
2013-04-29 01:59:00,52.2,30.2,29.82,SE,135,2.9,4.5,43,0.00,,,0.00,WUHU216HW,2013-04-29 05:59:00,
2013-04-29 02:00:00,52.2,30.2,29.82,SSE,158,1.6,4.5,43,0.00,,,0.00,WUHU216HW,2013-04-29 06:00:00,
2013-04-29 02:01:00,52.2,30.2,29.82,SE,135,2.7,4.5,43,0.00,,,0.00,WUHU216HW,2013-04-29 06:01:00,
2013-04-29 02:04:00,52.2,30.2,29.82,SSE,158,1.6,2.9,43,0.00,,,0.00,WUHU216HW,2013-04-29 06:04:00,
2013-04-29 02:05:00,52.2,30.2,29.82,South,180,1.6,2.9,43,0.00,,,0.00,WUHU216HW,2013-04-29 06:05:00,
2013-04-29 02:06:00,52.2,30.2,29.82,SSE,158,1.8,2.9,43,0.00,,,0.00,WUHU216HW,2013-04-29 06:06:00,
2013-04-29 02:10:00,52.2,30.2,29.82,SSE,158,2.9,2.9,43,0.00,,,0.00,WUHU216HW,2013-04-29 06:10:00,
2013-04-29 02:12:00,52.2,30.2,29.82,SSE,158,2.2,2.9,43,0.00,,,0.00,WUHU216HW,2013-04-29 06:12:00,
2013-04-29 02:15:00,52.0,30.1,29.82,SSE,158,2.0,2.9,43,0.00,,,0.00,WUHU216HW,2013-04-29 06:15:00,
2013-04-29 02:17:00,52.0,30.1,29.82,SSE,158,1.6,2.9,43,0.00,,,0.00,WUHU216HW,2013-04-29 06:17:00,
2013-04-29 02:20:00,51.8,30.0,29.82,SSE,158,1.8,2.2,43,0.00,,,0.00,WUHU216HW,2013-04-29 06:20:00,
2013-04-29 02:22:00,51.8,30.0,29.82,SE,135,2.5,2.5,43,0.00,,,0.00,WUHU216HW,2013-04-29 06:22:00,
2013-04-29 02:25:00,51.8,30.0,29.82,SSE,158,1.1,2.5,43,0.00,,,0.00,WUHU216HW,2013-04-29 06:25:00,
2013-04-29 02:27:00,51.8,30.0,29.82,South,180,1.8,2.5,43,0.00,,,0.00,WUHU216HW,2013-04-29 06:27:00,
2013-04-29 02:30:00,51.7,29.8,29.82,SE,135,1.1,2.5,43,0.00,,,0.00,WUHU216HW,2013-04-29 06:30:00,
2013-04-29 02:31:00,51.7,29.8,29.82,SE,135,1.1,2.5,43,0.00,,,0.00,WUHU216HW,2013-04-29 06:31:00,
2013-04-29 02:32:00,51.7,29.8,29.82,SE,135,0.7,2.2,43,0.00,,,0.00,WUHU216HW,2013-04-29 06:32:00,
2013-04-29 02:35:00,51.7,30.3,29.82,SE,135,0.9,2.2,44,0.00,,,0.00,WUHU216HW,2013-04-29 06:35:00,
2013-04-29 02:36:00,51.7,30.3,29.82,SE,135,0.9,2.2,44,0.00,,,0.00,WUHU216HW,2013-04-29 06:36:00,
2013-04-29 02:37:00,51.5,30.2,29.82,SE,135,1.3,1.3,44,0.00,,,0.00,WUHU216HW,2013-04-29 06:37:00,
2013-04-29 02:38:00,51.5,30.2,29.82,SE,135,0.9,1.3,44,0.00,,,0.00,WUHU216HW,2013-04-29 06:38:00,
2013-04-29 02:40:00,51.5,30.2,29.82,SE,135,0.7,1.3,44,0.00,,,0.00,WUHU216HW,2013-04-29 06:40:00,
2013-04-29 02:41:00,51.5,30.2,29.82,SE,135,0.7,1.3,44,0.00,,,0.00,WUHU216HW,2013-04-29 06:41:00,
2013-04-29 02:42:00,51.5,30.2,29.83,SSE,158,0.4,1.3,44,0.00,,,0.00,WUHU216HW,2013-04-29 06:42:00,
2013-04-29 02:43:00,51.5,30.2,29.82,SSE,158,0.7,1.3,44,0.00,,,0.00,WUHU216HW,2013-04-29 06:43:00,
2013-04-29 02:46:00,51.5,30.2,29.82,SSE,158,1.1,1.3,44,0.00,,,0.00,WUHU216HW,2013-04-29 06:46:00,
2013-04-29 02:47:00,51.5,30.2,29.82,SSE,158,0.9,1.1,44,0.00,,,0.00,WUHU216HW,2013-04-29 06:47:00,
2013-04-29 02:48:00,51.3,30.0,29.82,SSE,158,0.7,1.1,44,0.00,,,0.00,WUHU216HW,2013-04-29 06:48:00,
2013-04-29 02:51:00,51.3,30.0,29.82,SSW,203,1.1,1.1,44,0.00,,,0.00,WUHU216HW,2013-04-29 06:51:00,
2013-04-29 02:52:00,51.3,30.0,29.82,SSW,203,1.6,1.6,44,0.00,,,0.00,WUHU216HW,2013-04-29 06:52:00,
2013-04-29 02:53:00,51.1,29.9,29.82,SSE,158,1.1,1.6,44,0.00,,,0.00,WUHU216HW,2013-04-29 06:53:00,
2013-04-29 02:56:00,51.1,30.4,29.82,South,180,1.1,1.6,45,0.00,,,0.00,WUHU216HW,2013-04-29 06:56:00,
2013-04-29 02:57:00,51.1,30.4,29.82,South,180,1.1,1.6,45,0.00,,,0.00,WUHU216HW,2013-04-29 06:57:00,
2013-04-29 02:58:00,51.1,30.4,29.82,South,180,1.1,1.6,45,0.00,,,0.00,WUHU216HW,2013-04-29 06:58:00,
2013-04-29 03:01:00,50.9,30.2,29.82,SE,135,1.1,1.1,45,0.00,,,0.00,WUHU216HW,2013-04-29 07:01:00,
2013-04-29 03:02:00,50.9,30.2,29.82,SE,135,1.1,1.1,45,0.00,,,0.00,WUHU216HW,2013-04-29 07:02:00,
2013-04-29 03:03:00,50.9,30.2,29.82,SE,135,1.3,1.3,45,0.00,,,0.00,WUHU216HW,2013-04-29 07:03:00,
2013-04-29 03:07:00,50.9,30.2,29.83,SE,135,1.1,1.3,45,0.00,,,0.00,WUHU216HW,2013-04-29 07:07:00,
2013-04-29 03:08:00,50.9,30.2,29.83,SE,135,1.1,1.3,45,0.00,,,0.00,WUHU216HW,2013-04-29 07:08:00,
2013-04-29 03:12:00,50.9,30.2,29.83,SE,135,1.6,1.6,45,0.00,,,0.00,WUHU216HW,2013-04-29 07:12:00,
2013-04-29 03:13:00,50.9,30.2,29.83,SE,135,1.6,1.6,45,0.00,,,0.00,WUHU216HW,2013-04-29 07:13:00,
2013-04-29 03:14:00,50.9,30.2,29.83,SE,135,1.6,1.6,45,0.00,,,0.00,WUHU216HW,2013-04-29 07:14:00,
2013-04-29 03:17:00,50.9,30.2,29.83,SE,135,1.6,1.6,45,0.00,,,0.00,WUHU216HW,2013-04-29 07:17:00,
2013-04-29 03:18:00,50.9,30.2,29.83,SE,135,1.6,1.6,45,0.00,,,0.00,WUHU216HW,2013-04-29 07:18:00,
2013-04-29 03:39:00,50.4,30.3,29.83,SE,135,1.1,1.1,46,0.00,,,0.00,WUHU216HW,2013-04-29 07:39:00,
2013-04-29 03:44:00,50.4,30.3,29.83,SE,135,1.6,1.8,46,0.00,,,0.00,WUHU216HW,2013-04-29 07:44:00,
2013-04-29 03:49:00,50.4,30.3,29.83,SSE,158,1.8,1.8,46,0.00,,,0.00,WUHU216HW,2013-04-29 07:49:00,
2013-04-29 03:54:00,50.4,30.3,29.83,SE,135,1.8,2.0,46,0.00,,,0.00,WUHU216HW,2013-04-29 07:54:00,
2013-04-29 03:55:00,50.4,30.3,29.83,SE,135,1.8,2.0,46,0.00,,,0.00,WUHU216HW,2013-04-29 07:55:00,
2013-04-29 03:59:00,50.4,30.3,29.83,SE,135,1.8,2.0,46,0.00,,,0.00,WUHU216HW,2013-04-29 07:59:00,
2013-04-29 04:00:00,50.4,30.9,29.83,SSE,158,1.3,2.0,47,0.00,,,0.00,WUHU216HW,2013-04-29 08:00:00,
2013-04-29 04:04:00,50.4,30.9,29.83,SE,135,1.1,1.8,47,0.00,,,0.00,WUHU216HW,2013-04-29 08:04:00,
2013-04-29 04:05:00,50.4,30.9,29.83,SE,135,1.1,1.8,47,0.00,,,0.00,WUHU216HW,2013-04-29 08:05:00,
2013-04-29 04:09:00,50.2,30.7,29.84,SSE,158,1.1,1.8,47,0.00,,,0.00,WUHU216HW,2013-04-29 08:09:00,
2013-04-29 04:10:00,50.2,30.7,29.83,SE,135,0.4,1.8,47,0.00,,,0.00,WUHU216HW,2013-04-29 08:10:00,
2013-04-29 04:14:00,50.2,30.7,29.83,South,180,0.4,1.6,47,0.00,,,0.00,WUHU216HW,2013-04-29 08:14:00,
2013-04-29 04:15:00,50.2,30.7,29.83,SSE,158,0.4,1.6,47,0.00,,,0.00,WUHU216HW,2013-04-29 08:15:00,
2013-04-29 04:20:00,50.0,30.5,29.84,South,180,1.6,1.8,47,0.00,,,0.00,WUHU216HW,2013-04-29 08:20:00,
2013-04-29 04:21:00,50.0,30.5,29.84,South,180,1.6,1.8,47,0.00,,,0.00,WUHU216HW,2013-04-29 08:21:00,
2013-04-29 04:25:00,50.0,30.5,29.84,SSE,158,1.6,1.8,47,0.00,,,0.00,WUHU216HW,2013-04-29 08:25:00,
2013-04-29 04:26:00,50.0,30.5,29.84,SSE,158,1.6,1.8,47,0.00,,,0.00,WUHU216HW,2013-04-29 08:26:00,
2013-04-29 04:30:00,49.9,30.3,29.84,SSE,158,1.1,1.8,47,0.00,,,0.00,WUHU216HW,2013-04-29 08:30:00,
2013-04-29 04:31:00,49.9,30.3,29.84,SSE,158,1.1,1.8,47,0.00,,,0.00,WUHU216HW,2013-04-29 08:31:00,
2013-04-29 04:35:00,49.9,31.0,29.84,SSE,158,0.9,1.8,48,0.00,,,0.00,WUHU216HW,2013-04-29 08:35:00,
2013-04-29 04:36:00,49.9,31.0,29.84,SSE,158,0.9,1.8,48,0.00,,,0.00,WUHU216HW,2013-04-29 08:36:00,
2013-04-29 04:40:00,49.9,31.0,29.84,SE,135,0.7,1.6,48,0.00,,,0.00,WUHU216HW,2013-04-29 08:40:00,
2013-04-29 04:41:00,49.9,31.0,29.84,SE,135,0.7,1.6,48,0.00,,,0.00,WUHU216HW,2013-04-29 08:41:00,
2013-04-29 04:46:00,49.9,31.0,29.84,SE,135,0.7,1.3,48,0.00,,,0.00,WUHU216HW,2013-04-29 08:46:00,
2013-04-29 04:47:00,49.9,31.0,29.84,SE,135,0.4,1.1,48,0.00,,,0.00,WUHU216HW,2013-04-29 08:47:00,
2013-04-29 04:51:00,49.7,31.3,29.84,ESE,113,1.6,1.6,49,0.00,,,0.00,WUHU216HW,2013-04-29 08:51:00,
2013-04-29 04:52:00,49.9,31.5,29.84,SE,135,0.4,1.6,49,0.00,,,0.00,WUHU216HW,2013-04-29 08:52:00,
2013-04-29 04:56:00,49.7,31.3,29.84,ESE,113,0.9,1.6,49,0.00,,,0.00,WUHU216HW,2013-04-29 08:56:00,
2013-04-29 04:57:00,49.7,31.3,29.84,ESE,113,0.2,1.6,49,0.00,,,0.00,WUHU216HW,2013-04-29 08:57:00,
2013-04-29 05:01:00,49.7,31.3,29.84,SE,135,0.0,0.9,49,0.00,,,0.00,WUHU216HW,2013-04-29 09:01:00,
2013-04-29 05:02:00,49.7,31.3,29.84,SE,135,0.0,0.9,49,0.00,,,0.00,WUHU216HW,2013-04-29 09:02:00,
2013-04-29 05:03:00,49.7,31.3,29.84,SE,135,0.0,0.9,49,0.00,,,0.00,WUHU216HW,2013-04-29 09:03:00,
2013-04-29 05:06:00,49.7,31.3,29.84,ESE,113,0.0,0.0,49,0.00,,,0.00,WUHU216HW,2013-04-29 09:06:00,
2013-04-29 05:07:00,49.5,31.2,29.84,SE,135,0.7,0.7,49,0.00,,,0.00,WUHU216HW,2013-04-29 09:07:00,
2013-04-29 05:08:00,49.5,31.2,29.84,SE,135,0.7,0.7,49,0.00,,,0.00,WUHU216HW,2013-04-29 09:08:00,
2013-04-29 05:11:00,49.5,31.2,29.84,SE,135,0.4,0.7,49,0.00,,,0.00,WUHU216HW,2013-04-29 09:11:00,
2013-04-29 05:12:00,49.5,31.2,29.84,SE,135,0.4,0.7,49,0.00,,,0.00,WUHU216HW,2013-04-29 09:12:00,
2013-04-29 05:13:00,49.5,31.7,29.84,SE,135,0.4,0.7,50,0.00,,,0.00,WUHU216HW,2013-04-29 09:13:00,
2013-04-29 05:17:00,49.5,31.7,29.84,South,180,0.4,0.7,50,0.00,,,0.00,WUHU216HW,2013-04-29 09:17:00,
2013-04-29 05:18:00,49.5,31.7,29.84,SSE,158,0.2,0.7,50,0.00,,,0.00,WUHU216HW,2013-04-29 09:18:00,
2013-04-29 05:22:00,49.3,31.5,29.84,SE,135,0.2,0.7,50,0.00,,,0.00,WUHU216HW,2013-04-29 09:22:00,
2013-04-29 05:23:00,49.3,31.5,29.84,SE,135,0.2,0.7,50,0.00,,,0.00,WUHU216HW,2013-04-29 09:23:00,
2013-04-29 05:27:00,49.3,31.5,29.84,ESE,113,0.7,0.7,50,0.00,,,0.00,WUHU216HW,2013-04-29 09:27:00,
2013-04-29 05:28:00,49.3,31.5,29.84,ESE,113,0.7,0.7,50,0.00,,,0.00,WUHU216HW,2013-04-29 09:28:00,
2013-04-29 05:29:00,49.3,32.0,29.84,SE,135,1.1,1.1,51,0.00,,,0.00,WUHU216HW,2013-04-29 09:29:00,
2013-04-29 05:32:00,49.3,32.0,29.84,SE,135,1.3,1.3,51,0.00,,,0.00,WUHU216HW,2013-04-29 09:32:00,
2013-04-29 05:33:00,49.3,32.0,29.84,SE,135,1.3,1.3,51,0.00,,,0.00,WUHU216HW,2013-04-29 09:33:00,
2013-04-29 05:34:00,49.3,32.0,29.84,SE,135,0.7,1.3,51,0.00,,,0.00,WUHU216HW,2013-04-29 09:34:00,
2013-04-29 05:37:00,49.3,32.0,29.84,SSW,203,1.1,1.3,51,0.00,,,0.00,WUHU216HW,2013-04-29 09:37:00,
2013-04-29 05:38:00,49.3,32.0,29.84,SSW,203,1.1,1.3,51,0.00,,,0.00,WUHU216HW,2013-04-29 09:38:00,
2013-04-29 05:39:00,49.3,32.0,29.84,South,180,1.3,1.3,51,0.00,,,0.00,WUHU216HW,2013-04-29 09:39:00,
2013-04-29 05:42:00,49.3,32.4,29.84,SE,135,0.4,1.3,52,0.00,,,0.00,WUHU216HW,2013-04-29 09:42:00,
2013-04-29 05:43:00,49.3,32.4,29.84,SE,135,0.4,1.3,52,0.00,,,0.00,WUHU216HW,2013-04-29 09:43:00,
2013-04-29 05:44:00,49.3,32.4,29.84,SE,135,1.1,1.3,52,0.00,,,0.00,WUHU216HW,2013-04-29 09:44:00,
2013-04-29 05:47:00,49.3,32.4,29.84,SE,135,1.1,1.3,52,0.00,,,0.00,WUHU216HW,2013-04-29 09:47:00,
2013-04-29 05:48:00,49.3,32.4,29.84,SE,135,1.1,1.1,52,0.00,,,0.00,WUHU216HW,2013-04-29 09:48:00,
2013-04-29 05:49:00,49.3,32.4,29.84,SE,135,1.1,1.1,52,0.00,,,0.00,WUHU216HW,2013-04-29 09:49:00,
2013-04-29 05:50:00,49.3,32.9,29.84,SSE,158,1.8,1.8,53,0.00,,,0.00,WUHU216HW,2013-04-29 09:50:00,
2013-04-29 05:53:00,49.3,32.9,29.84,SE,135,2.0,2.0,53,0.00,,,0.00,WUHU216HW,2013-04-29 09:53:00,
2013-04-29 05:54:00,49.3,32.9,29.84,SE,135,2.0,2.0,53,0.00,,,0.00,WUHU216HW,2013-04-29 09:54:00,
2013-04-29 05:55:00,49.3,32.9,29.84,SE,135,4.0,4.0,53,0.00,,,0.00,WUHU216HW,2013-04-29 09:55:00,
2013-04-29 05:58:00,49.3,32.9,29.84,South,180,1.6,4.0,53,0.00,,,0.00,WUHU216HW,2013-04-29 09:58:00,
2013-04-29 05:59:00,49.3,32.9,29.84,South,180,1.1,4.0,53,0.00,,,0.00,WUHU216HW,2013-04-29 09:59:00,
2013-04-29 06:00:00,49.3,32.9,29.84,SSE,158,1.8,4.0,53,0.00,,,0.00,WUHU216HW,2013-04-29 10:00:00,
2013-04-29 06:03:00,49.3,32.9,29.84,SE,135,1.1,4.0,53,0.00,,,0.00,WUHU216HW,2013-04-29 10:03:00,
2013-04-29 06:04:00,49.3,32.9,29.84,SSE,158,1.1,4.0,53,0.00,,,0.00,WUHU216HW,2013-04-29 10:04:00,
2013-04-29 06:05:00,49.3,32.9,29.84,SE,135,1.1,2.0,53,0.00,,,0.00,WUHU216HW,2013-04-29 10:05:00,
2013-04-29 06:06:00,49.3,33.3,29.84,SE,135,1.6,2.0,54,0.00,,,0.00,WUHU216HW,2013-04-29 10:06:00,
2013-04-29 06:08:00,49.3,33.3,29.84,SE,135,2.2,2.2,54,0.00,,,0.00,WUHU216HW,2013-04-29 10:08:00,
2013-04-29 06:09:00,49.3,33.3,29.84,SE,135,2.5,2.5,54,0.00,,,0.00,WUHU216HW,2013-04-29 10:09:00,
2013-04-29 06:10:00,49.3,33.3,29.84,SE,135,2.5,2.5,54,0.00,,,0.00,WUHU216HW,2013-04-29 10:10:00,
2013-04-29 06:11:00,49.3,33.3,29.84,SE,135,2.0,2.5,54,0.00,,,0.00,WUHU216HW,2013-04-29 10:11:00,
2013-04-29 06:13:00,49.3,33.8,29.84,SE,135,2.5,2.5,55,0.00,,,0.00,WUHU216HW,2013-04-29 10:13:00,
2013-04-29 06:14:00,49.3,33.8,29.84,SE,135,3.1,3.1,55,0.00,,,0.00,WUHU216HW,2013-04-29 10:14:00,
2013-04-29 06:15:00,49.3,33.8,29.84,SE,135,1.8,3.1,55,0.00,,,0.00,WUHU216HW,2013-04-29 10:15:00,
2013-04-29 06:16:00,49.3,33.8,29.84,SSE,158,1.6,3.1,55,0.00,,,0.00,WUHU216HW,2013-04-29 10:16:00,
2013-04-29 06:18:00,49.3,33.8,29.84,SE,135,1.3,3.1,55,0.00,,,0.00,WUHU216HW,2013-04-29 10:18:00,
2013-04-29 06:19:00,49.3,33.8,29.84,SE,135,2.9,3.1,55,0.00,,,0.00,WUHU216HW,2013-04-29 10:19:00,
2013-04-29 06:20:00,49.3,34.2,29.84,SSE,158,3.1,3.1,56,0.00,,,0.00,WUHU216HW,2013-04-29 10:20:00,
2013-04-29 06:21:00,49.5,34.4,29.84,SSE,158,3.4,3.4,56,0.00,,,0.00,WUHU216HW,2013-04-29 10:21:00,
2013-04-29 06:24:00,49.5,33.9,29.84,SSE,158,1.8,3.4,55,0.00,,,0.00,WUHU216HW,2013-04-29 10:24:00,
2013-04-29 06:25:00,49.5,33.9,29.84,SE,135,1.3,3.4,55,0.00,,,0.00,WUHU216HW,2013-04-29 10:25:00,
2013-04-29 06:26:00,49.5,33.9,29.84,SSE,158,1.8,3.4,55,0.00,,,0.00,WUHU216HW,2013-04-29 10:26:00,
2013-04-29 06:29:00,49.5,33.9,29.84,SSE,158,2.5,3.4,55,0.00,,,0.00,WUHU216HW,2013-04-29 10:29:00,
2013-04-29 06:30:00,49.5,33.9,29.84,SW,225,2.5,3.4,55,0.00,,,0.00,WUHU216HW,2013-04-29 10:30:00,
2013-04-29 06:31:00,49.5,33.9,29.84,South,180,3.4,3.4,55,0.00,,,0.00,WUHU216HW,2013-04-29 10:31:00,
2013-04-29 06:34:00,49.7,34.6,29.84,South,180,1.8,3.4,56,0.00,,,0.00,WUHU216HW,2013-04-29 10:34:00,
2013-04-29 06:35:00,49.7,34.6,29.85,SSE,158,1.8,3.4,56,0.00,,,0.00,WUHU216HW,2013-04-29 10:35:00,
2013-04-29 06:36:00,49.7,34.6,29.85,South,180,2.9,3.4,56,0.00,,,0.00,WUHU216HW,2013-04-29 10:36:00,
2013-04-29 06:37:00,49.7,34.6,29.85,South,180,2.9,3.4,56,0.00,,,0.00,WUHU216HW,2013-04-29 10:37:00,
2013-04-29 06:39:00,49.7,34.6,29.84,SW,225,2.0,3.4,56,0.00,,,0.00,WUHU216HW,2013-04-29 10:39:00,
2013-04-29 06:40:00,49.7,34.6,29.84,SE,135,2.5,3.4,56,0.00,,,0.00,WUHU216HW,2013-04-29 10:40:00,
2013-04-29 06:41:00,49.7,34.6,29.84,SSE,158,2.5,4.3,56,0.00,,,0.00,WUHU216HW,2013-04-29 10:41:00,
2013-04-29 06:42:00,49.7,34.6,29.84,SSE,158,2.5,4.3,56,0.00,,,0.00,WUHU216HW,2013-04-29 10:42:00,
2013-04-29 06:44:00,49.9,34.7,29.85,SSE,158,1.3,4.3,56,0.00,,,0.00,WUHU216HW,2013-04-29 10:44:00,
2013-04-29 06:45:00,50.0,34.9,29.84,SSE,158,2.5,4.3,56,0.00,,,0.00,WUHU216HW,2013-04-29 10:45:00,
2013-04-29 06:46:00,50.0,34.9,29.84,SSW,203,2.0,4.3,56,0.00,,,0.00,WUHU216HW,2013-04-29 10:46:00,
2013-04-29 06:47:00,50.0,34.9,29.84,SSW,203,2.0,4.3,56,0.00,,,0.00,WUHU216HW,2013-04-29 10:47:00,
2013-04-29 06:49:00,50.0,34.9,29.84,SE,135,2.0,4.3,56,0.00,,,0.00,WUHU216HW,2013-04-29 10:49:00,
2013-04-29 06:51:00,50.2,35.1,29.84,SE,135,1.3,3.8,56,0.00,,,0.00,WUHU216HW,2013-04-29 10:51:00,
2013-04-29 06:52:00,50.2,35.6,29.85,SE,135,1.1,3.8,57,0.00,,,0.00,WUHU216HW,2013-04-29 10:52:00,
2013-04-29 06:53:00,50.2,35.1,29.85,SSE,158,1.6,2.5,56,0.00,,,0.00,WUHU216HW,2013-04-29 10:53:00,
2013-04-29 06:55:00,50.4,35.3,29.85,ESE,113,1.1,2.0,56,0.00,,,0.00,WUHU216HW,2013-04-29 10:55:00,
2013-04-29 06:56:00,50.4,35.3,29.85,SE,135,0.9,2.0,56,0.00,,,0.00,WUHU216HW,2013-04-29 10:56:00,
2013-04-29 06:57:00,50.4,35.3,29.85,SE,135,0.4,2.0,56,0.00,,,0.00,WUHU216HW,2013-04-29 10:57:00,
2013-04-29 06:58:00,50.4,35.7,29.85,SE,135,1.1,2.0,57,0.00,,,0.00,WUHU216HW,2013-04-29 10:58:00,
2013-04-29 07:01:00,50.6,35.8,29.85,East,90,1.1,1.6,57,0.00,,,0.00,WUHU216HW,2013-04-29 11:01:00,
2013-04-29 07:02:00,50.6,35.8,29.85,ENE,68,0.9,1.6,57,0.00,,,0.00,WUHU216HW,2013-04-29 11:02:00,
2013-04-29 07:03:00,50.6,35.8,29.85,ENE,68,0.9,1.1,57,0.00,,,0.00,WUHU216HW,2013-04-29 11:03:00,
2013-04-29 07:04:00,50.8,36.0,29.85,SE,135,1.1,1.1,57,0.00,,,0.00,WUHU216HW,2013-04-29 11:04:00,
2013-04-29 07:06:00,50.8,36.0,29.85,ESE,113,0.9,1.1,57,0.00,,,0.00,WUHU216HW,2013-04-29 11:06:00,
2013-04-29 07:07:00,50.8,36.0,29.85,East,90,1.3,1.3,57,0.00,,,0.00,WUHU216HW,2013-04-29 11:07:00,
2013-04-29 07:08:00,50.8,36.0,29.85,SE,135,0.4,1.3,57,0.00,,,0.00,WUHU216HW,2013-04-29 11:08:00,
2013-04-29 07:09:00,50.8,36.0,29.85,SE,135,1.1,1.3,57,0.00,,,0.00,WUHU216HW,2013-04-29 11:09:00,
2013-04-29 07:11:00,50.8,36.0,29.85,SE,135,0.9,1.6,57,0.00,,,0.00,WUHU216HW,2013-04-29 11:11:00,
2013-04-29 07:12:00,50.8,36.0,29.85,SE,135,1.1,1.6,57,0.00,,,0.00,WUHU216HW,2013-04-29 11:12:00,
2013-04-29 07:13:00,50.8,36.0,29.85,SSE,158,1.1,1.6,57,0.00,,,0.00,WUHU216HW,2013-04-29 11:13:00,
2013-04-29 07:15:00,50.8,36.0,29.85,SE,135,1.1,3.4,57,0.00,,,0.00,WUHU216HW,2013-04-29 11:15:00,
2013-04-29 07:16:00,50.8,36.0,29.85,SE,135,1.8,3.4,57,0.00,,,0.00,WUHU216HW,2013-04-29 11:16:00,
2013-04-29 07:17:00,50.8,36.0,29.85,SE,135,1.3,3.4,57,0.00,,,0.00,WUHU216HW,2013-04-29 11:17:00,
2013-04-29 07:18:00,50.8,36.0,29.85,SE,135,1.3,3.4,57,0.00,,,0.00,WUHU216HW,2013-04-29 11:18:00,
2013-04-29 07:21:00,50.8,36.0,29.85,SW,225,2.2,3.4,57,0.00,,,0.00,WUHU216HW,2013-04-29 11:21:00,
2013-04-29 07:22:00,50.8,36.5,29.85,SE,135,2.9,3.4,58,0.00,,,0.00,WUHU216HW,2013-04-29 11:22:00,
2013-04-29 07:24:00,50.8,36.5,29.86,SSE,158,2.0,2.9,58,0.00,,,0.00,WUHU216HW,2013-04-29 11:24:00,
2013-04-29 07:26:00,50.9,36.6,29.86,SSE,158,2.5,2.9,58,0.00,,,0.00,WUHU216HW,2013-04-29 11:26:00,
2013-04-29 07:27:00,50.9,36.6,29.85,SE,135,2.0,2.9,58,0.00,,,0.00,WUHU216HW,2013-04-29 11:27:00,
2013-04-29 07:29:00,50.9,36.6,29.86,SSE,158,1.1,2.9,58,0.00,,,0.00,WUHU216HW,2013-04-29 11:29:00,
2013-04-29 07:31:00,51.1,36.8,29.86,SSE,158,1.8,2.9,58,0.00,,,0.00,WUHU216HW,2013-04-29 11:31:00,
2013-04-29 07:32:00,51.1,36.8,29.85,East,90,1.1,2.9,58,0.00,,,0.00,WUHU216HW,2013-04-29 11:32:00,
2013-04-29 07:34:00,51.3,37.0,29.86,SSE,158,1.8,2.9,58,0.00,,,0.00,WUHU216HW,2013-04-29 11:34:00,
2013-04-29 07:36:00,51.3,37.5,29.86,SE,135,1.6,2.5,59,0.00,,,0.00,WUHU216HW,2013-04-29 11:36:00,
2013-04-29 07:37:00,51.3,37.5,29.86,SE,135,1.6,2.5,59,0.00,,,0.00,WUHU216HW,2013-04-29 11:37:00,
2013-04-29 07:39:00,51.5,37.1,29.85,SE,135,0.7,2.5,58,0.00,,,0.00,WUHU216HW,2013-04-29 11:39:00,
2013-04-29 07:41:00,51.7,37.7,29.86,ESE,113,2.9,4.0,59,0.00,,,0.00,WUHU216HW,2013-04-29 11:41:00,
2013-04-29 07:42:00,51.7,37.7,29.86,ESE,113,2.9,4.0,59,0.00,,,0.00,WUHU216HW,2013-04-29 11:42:00,
2013-04-29 07:44:00,51.8,37.9,29.86,ESE,113,1.8,4.0,59,0.00,,,0.00,WUHU216HW,2013-04-29 11:44:00,
2013-04-29 07:46:00,52.0,38.1,29.86,SSE,158,2.5,4.0,59,0.00,,,0.00,WUHU216HW,2013-04-29 11:46:00,
2013-04-29 07:47:00,52.0,38.1,29.86,SSE,158,2.5,4.0,59,0.00,,,0.00,WUHU216HW,2013-04-29 11:47:00,
2013-04-29 07:48:00,52.2,38.3,29.86,ESE,113,2.5,4.0,59,0.00,,,0.00,WUHU216HW,2013-04-29 11:48:00,
2013-04-29 07:49:00,52.2,38.3,29.86,NE,45,1.8,4.0,59,0.00,,,0.00,WUHU216HW,2013-04-29 11:49:00,
2013-04-29 07:51:00,52.4,38.4,29.85,SE,135,2.7,3.1,59,0.00,,,0.00,WUHU216HW,2013-04-29 11:51:00,
2013-04-29 07:52:00,52.4,38.4,29.85,SE,135,2.7,3.1,59,0.00,,,0.00,WUHU216HW,2013-04-29 11:52:00,
2013-04-29 07:53:00,52.4,38.4,29.85,SSW,203,3.1,3.1,59,0.00,,,0.00,WUHU216HW,2013-04-29 11:53:00,
2013-04-29 07:55:00,52.4,38.4,29.85,SE,135,1.3,3.1,59,0.00,,,0.00,WUHU216HW,2013-04-29 11:55:00,
2013-04-29 07:56:00,52.6,39.1,29.85,ESE,113,2.2,5.8,60,0.00,,,0.00,WUHU216HW,2013-04-29 11:56:00,
2013-04-29 07:57:00,52.6,39.1,29.85,ESE,113,2.2,5.8,60,0.00,,,0.00,WUHU216HW,2013-04-29 11:57:00,
2013-04-29 07:58:00,52.7,38.8,29.85,SE,135,2.7,5.8,59,0.00,,,0.00,WUHU216HW,2013-04-29 11:58:00,
2013-04-29 08:00:00,52.9,39.0,29.85,SE,135,2.7,5.8,59,0.00,,,0.00,WUHU216HW,2013-04-29 12:00:00,
2013-04-29 08:02:00,52.9,39.0,29.85,SE,135,2.9,5.8,59,0.00,,,0.00,WUHU216HW,2013-04-29 12:02:00,
2013-04-29 08:03:00,53.1,39.2,29.85,SE,135,2.5,5.8,59,0.00,,,0.00,WUHU216HW,2013-04-29 12:03:00,
2013-04-29 08:05:00,53.3,39.8,29.85,SE,135,6.3,6.3,60,0.00,,,0.00,WUHU216HW,2013-04-29 12:05:00,
2013-04-29 08:07:00,53.3,39.8,29.85,SE,135,4.0,6.3,60,0.00,,,0.00,WUHU216HW,2013-04-29 12:07:00,
2013-04-29 08:08:00,53.5,40.0,29.85,SSE,158,4.0,6.3,60,0.00,,,0.00,WUHU216HW,2013-04-29 12:08:00,
2013-04-29 08:09:00,53.6,40.1,29.85,South,180,4.0,6.3,60,0.00,,,0.00,WUHU216HW,2013-04-29 12:09:00,
2013-04-29 08:10:00,53.6,40.1,29.85,SE,135,3.8,6.3,60,0.00,,,0.00,WUHU216HW,2013-04-29 12:10:00,
2013-04-29 08:12:00,53.6,40.1,29.85,ESE,113,5.1,6.3,60,0.00,,,0.00,WUHU216HW,2013-04-29 12:12:00,
2013-04-29 08:13:00,53.6,40.1,29.85,ESE,113,5.1,6.3,60,0.00,,,0.00,WUHU216HW,2013-04-29 12:13:00,
2013-04-29 08:14:00,53.6,40.1,29.85,SE,135,4.7,6.3,60,0.00,,,0.00,WUHU216HW,2013-04-29 12:14:00,
2013-04-29 08:15:00,53.8,40.7,29.85,SSE,158,5.8,5.8,61,0.00,,,0.00,WUHU216HW,2013-04-29 12:15:00,
2013-04-29 08:17:00,53.6,40.1,29.85,SE,135,2.9,5.8,60,0.00,,,0.00,WUHU216HW,2013-04-29 12:17:00,
2013-04-29 08:18:00,53.8,40.3,29.85,SSE,158,2.9,5.8,60,0.00,,,0.00,WUHU216HW,2013-04-29 12:18:00,
2013-04-29 08:19:00,54.0,40.5,29.85,SE,135,4.0,5.8,60,0.00,,,0.00,WUHU216HW,2013-04-29 12:19:00,
2013-04-29 08:20:00,54.0,40.5,29.85,ESE,113,5.4,5.8,60,0.00,,,0.00,WUHU216HW,2013-04-29 12:20:00,
2013-04-29 08:22:00,54.0,40.5,29.85,SSE,158,2.5,6.5,60,0.00,,,0.00,WUHU216HW,2013-04-29 12:22:00,
2013-04-29 08:23:00,54.0,40.5,29.85,South,180,4.0,6.5,60,0.00,,,0.00,WUHU216HW,2013-04-29 12:23:00,
2013-04-29 08:24:00,54.0,40.5,29.85,SSE,158,3.6,6.5,60,0.00,,,0.00,WUHU216HW,2013-04-29 12:24:00,
2013-04-29 08:25:00,54.0,40.5,29.85,SE,135,7.2,7.2,60,0.00,,,0.00,WUHU216HW,2013-04-29 12:25:00,
2013-04-29 08:27:00,54.2,41.1,29.85,SE,135,6.0,7.2,61,0.00,,,0.00,WUHU216HW,2013-04-29 12:27:00,
2013-04-29 08:28:00,54.0,40.9,29.84,SE,135,6.9,7.2,61,0.00,,,0.00,WUHU216HW,2013-04-29 12:28:00,
2013-04-29 08:29:00,54.0,40.9,29.84,SE,135,6.9,7.2,61,0.00,,,0.00,WUHU216HW,2013-04-29 12:29:00,
2013-04-29 08:30:00,54.0,40.9,29.85,ESE,113,2.9,7.2,61,0.00,,,0.00,WUHU216HW,2013-04-29 12:30:00,
2013-04-29 08:32:00,54.2,41.1,29.84,SSE,158,3.4,7.2,61,0.00,,,0.00,WUHU216HW,2013-04-29 12:32:00,
2013-04-29 08:33:00,54.4,41.2,29.85,SSE,158,5.6,7.2,61,0.00,,,0.00,WUHU216HW,2013-04-29 12:33:00,
2013-04-29 08:34:00,54.4,41.2,29.85,SSE,158,5.1,7.2,61,0.00,,,0.00,WUHU216HW,2013-04-29 12:34:00,
2013-04-29 08:35:00,54.5,41.3,29.84,SSE,158,5.8,6.9,61,0.00,,,0.00,WUHU216HW,2013-04-29 12:35:00,
2013-04-29 08:37:00,54.9,41.7,29.85,SSE,158,3.4,6.9,61,0.00,,,0.00,WUHU216HW,2013-04-29 12:37:00,
2013-04-29 08:39:00,55.1,41.9,29.85,SSE,158,7.2,7.2,61,0.00,,,0.00,WUHU216HW,2013-04-29 12:39:00,
2013-04-29 08:40:00,55.3,41.6,29.85,SSE,158,3.8,7.2,60,0.00,,,0.00,WUHU216HW,2013-04-29 12:40:00,
2013-04-29 08:43:00,55.8,42.1,29.85,SE,135,4.7,7.2,60,0.00,,,0.00,WUHU216HW,2013-04-29 12:43:00,
2013-04-29 08:44:00,55.8,42.1,29.85,SE,135,4.7,7.2,60,0.00,,,0.00,WUHU216HW,2013-04-29 12:44:00,
2013-04-29 08:45:00,56.2,42.5,29.85,South,180,4.7,7.4,60,0.00,,,0.00,WUHU216HW,2013-04-29 12:45:00,
2013-04-29 08:48:00,56.2,42.0,29.85,SSE,158,5.4,7.4,59,0.00,,,0.00,WUHU216HW,2013-04-29 12:48:00,
2013-04-29 08:49:00,56.2,42.0,29.85,SSE,158,5.4,7.4,59,0.00,,,0.00,WUHU216HW,2013-04-29 12:49:00,
2013-04-29 08:50:00,56.3,42.2,29.85,SE,135,4.9,7.4,59,0.00,,,0.00,WUHU216HW,2013-04-29 12:50:00,
2013-04-29 08:51:00,56.3,42.2,29.85,SE,135,4.5,7.4,59,0.00,,,0.00,WUHU216HW,2013-04-29 12:51:00,
2013-04-29 08:53:00,56.2,42.0,29.84,ESE,113,4.9,7.4,59,0.00,,,0.00,WUHU216HW,2013-04-29 12:53:00,
2013-04-29 08:54:00,56.2,42.0,29.84,ESE,113,4.9,7.4,59,0.00,,,0.00,WUHU216HW,2013-04-29 12:54:00,
2013-04-29 08:55:00,56.0,41.9,29.84,SSE,158,5.1,5.4,59,0.00,,,0.00,WUHU216HW,2013-04-29 12:55:00,
2013-04-29 08:56:00,56.0,41.4,29.84,ESE,113,4.0,5.4,58,0.00,,,0.00,WUHU216HW,2013-04-29 12:56:00,
2013-04-29 08:59:00,55.8,41.7,29.84,SE,135,4.0,5.1,59,0.00,,,0.00,WUHU216HW,2013-04-29 12:59:00,
2013-04-29 09:00:00,55.8,41.7,29.84,SE,135,5.6,5.6,59,0.00,,,0.00,WUHU216HW,2013-04-29 13:00:00,
2013-04-29 09:01:00,55.8,41.7,29.85,SE,135,4.3,5.6,59,0.00,,,0.00,WUHU216HW,2013-04-29 13:01:00,
2013-04-29 09:04:00,55.6,41.9,29.84,SE,135,6.3,6.3,60,0.00,,,0.00,WUHU216HW,2013-04-29 13:04:00,
2013-04-29 09:05:00,55.6,41.9,29.84,South,180,5.6,6.3,60,0.00,,,0.00,WUHU216HW,2013-04-29 13:05:00,
2013-04-29 09:06:00,55.6,41.9,29.84,ESE,113,5.6,6.3,60,0.00,,,0.00,WUHU216HW,2013-04-29 13:06:00,
2013-04-29 09:07:00,55.6,41.9,29.84,SSE,158,7.2,7.2,60,0.00,,,0.00,WUHU216HW,2013-04-29 13:07:00,
2013-04-29 09:09:00,55.4,41.8,29.85,SE,135,5.8,7.2,60,0.00,,,0.00,WUHU216HW,2013-04-29 13:09:00,
2013-04-29 09:10:00,55.4,41.8,29.85,SE,135,4.7,7.2,60,0.00,,,0.00,WUHU216HW,2013-04-29 13:10:00,
2013-04-29 09:11:00,55.4,41.8,29.85,SSE,158,7.6,7.6,60,0.00,,,0.00,WUHU216HW,2013-04-29 13:11:00,
2013-04-29 09:12:00,55.4,41.8,29.85,SE,135,3.6,7.6,60,0.00,,,0.00,WUHU216HW,2013-04-29 13:12:00,
2013-04-29 09:14:00,55.4,41.8,29.85,SE,135,6.5,7.6,60,0.00,,,0.00,WUHU216HW,2013-04-29 13:14:00,
2013-04-29 09:15:00,55.4,41.8,29.84,SE,135,3.4,7.6,60,0.00,,,0.00,WUHU216HW,2013-04-29 13:15:00,
2013-04-29 09:17:00,55.4,41.8,29.84,SE,135,2.9,7.6,60,0.00,,,0.00,WUHU216HW,2013-04-29 13:17:00,
2013-04-29 09:19:00,55.6,41.9,29.84,SSE,158,4.9,7.6,60,0.00,,,0.00,WUHU216HW,2013-04-29 13:19:00,
2013-04-29 09:20:00,55.6,41.9,29.84,ESE,113,3.1,7.6,60,0.00,,,0.00,WUHU216HW,2013-04-29 13:20:00,
2013-04-29 09:22:00,55.8,42.1,29.84,ESE,113,3.4,6.5,60,0.00,,,0.00,WUHU216HW,2013-04-29 13:22:00,
2013-04-29 09:24:00,56.0,42.3,29.84,SE,135,5.1,5.8,60,0.00,,,0.00,WUHU216HW,2013-04-29 13:24:00,
2013-04-29 09:25:00,56.0,42.3,29.84,South,180,5.8,5.8,60,0.00,,,0.00,WUHU216HW,2013-04-29 13:25:00,
2013-04-29 09:27:00,56.2,42.5,29.85,SSE,158,6.9,6.9,60,0.00,,,0.00,WUHU216HW,2013-04-29 13:27:00,
2013-04-29 09:28:00,56.2,42.5,29.85,SSE,158,6.9,6.9,60,0.00,,,0.00,WUHU216HW,2013-04-29 13:28:00,
2013-04-29 09:29:00,56.2,42.5,29.84,SE,135,4.9,6.9,60,0.00,,,0.00,WUHU216HW,2013-04-29 13:29:00,
2013-04-29 09:30:00,56.2,42.5,29.84,SE,135,4.9,6.9,60,0.00,,,0.00,WUHU216HW,2013-04-29 13:30:00,
2013-04-29 09:31:00,56.2,42.5,29.84,South,180,3.4,6.9,60,0.00,,,0.00,WUHU216HW,2013-04-29 13:31:00,
2013-04-29 09:32:00,56.3,42.7,29.84,South,180,8.3,8.3,60,0.00,,,0.00,WUHU216HW,2013-04-29 13:32:00,
2013-04-29 09:33:00,56.3,42.7,29.84,SE,135,6.5,8.3,60,0.00,,,0.00,WUHU216HW,2013-04-29 13:33:00,
2013-04-29 09:35:00,56.5,42.8,29.84,SE,135,9.8,9.8,60,0.00,,,0.00,WUHU216HW,2013-04-29 13:35:00,
2013-04-29 09:36:00,56.5,42.8,29.84,South,180,7.2,9.8,60,0.00,,,0.00,WUHU216HW,2013-04-29 13:36:00,
2013-04-29 09:37:00,56.3,42.2,29.84,SSE,158,4.0,9.8,59,0.00,,,0.00,WUHU216HW,2013-04-29 13:37:00,
2013-04-29 09:38:00,56.3,42.7,29.84,SSE,158,6.3,9.8,60,0.00,,,0.00,WUHU216HW,2013-04-29 13:38:00,
2013-04-29 09:40:00,56.3,42.7,29.84,SE,135,4.7,9.8,60,0.00,,,0.00,WUHU216HW,2013-04-29 13:40:00,
2013-04-29 09:41:00,56.2,42.5,29.84,South,180,5.1,9.8,60,0.00,,,0.00,WUHU216HW,2013-04-29 13:41:00,
2013-04-29 09:42:00,56.2,42.5,29.84,South,180,5.1,9.8,60,0.00,,,0.00,WUHU216HW,2013-04-29 13:42:00,
2013-04-29 09:43:00,56.2,42.5,29.84,South,180,5.1,9.8,60,0.00,,,0.00,WUHU216HW,2013-04-29 13:43:00,
2013-04-29 09:45:00,56.2,42.5,29.84,South,180,5.1,7.2,60,0.00,,,0.00,WUHU216HW,2013-04-29 13:45:00,
2013-04-29 09:46:00,56.2,42.5,29.84,South,180,5.1,6.3,60,0.00,,,0.00,WUHU216HW,2013-04-29 13:46:00,
2013-04-29 09:47:00,56.2,42.5,29.84,South,180,5.1,6.3,60,0.00,,,0.00,WUHU216HW,2013-04-29 13:47:00,
2013-04-29 09:48:00,56.2,42.5,29.84,South,180,5.1,5.1,60,0.00,,,0.00,WUHU216HW,2013-04-29 13:48:00,
2013-04-29 09:50:00,56.2,42.5,29.84,South,180,5.1,5.1,60,0.00,,,0.00,WUHU216HW,2013-04-29 13:50:00,
2013-04-29 10:00:00,56.7,43.4,29.84,SSE,158,6.7,6.7,61,0.00,,,0.00,WUHU216HW,2013-04-29 14:00:00,
2013-04-29 10:05:00,57.2,43.6,29.84,South,180,7.4,7.4,60,0.00,,,0.00,WUHU216HW,2013-04-29 14:05:00,
2013-04-29 10:10:00,57.4,43.3,29.84,SE,135,7.6,11.0,59,0.00,,,0.00,WUHU216HW,2013-04-29 14:10:00,
2013-04-29 10:11:00,57.4,43.3,29.84,SE,135,7.6,11.0,59,0.00,,,0.00,WUHU216HW,2013-04-29 14:11:00,
2013-04-29 10:15:00,57.6,43.4,29.84,SSE,158,5.4,11.0,59,0.00,,,0.00,WUHU216HW,2013-04-29 14:15:00,
2013-04-29 10:16:00,57.6,43.4,29.84,SW,225,4.0,11.0,59,0.00,,,0.00,WUHU216HW,2013-04-29 14:16:00,
2013-04-29 10:17:00,57.6,43.4,29.84,SSE,158,5.8,11.0,59,0.00,,,0.00,WUHU216HW,2013-04-29 14:17:00,
2013-04-29 10:20:00,57.6,43.4,29.85,SE,135,7.8,9.4,59,0.00,,,0.00,WUHU216HW,2013-04-29 14:20:00,
2013-04-29 10:21:00,57.6,43.4,29.84,South,180,8.5,9.4,59,0.00,,,0.00,WUHU216HW,2013-04-29 14:21:00,
2013-04-29 10:22:00,57.6,42.9,29.84,SSE,158,11.6,11.6,58,0.00,,,0.00,WUHU216HW,2013-04-29 14:22:00,
2013-04-29 10:25:00,57.6,43.4,29.84,SSW,203,3.8,11.6,59,0.00,,,0.00,WUHU216HW,2013-04-29 14:25:00,
2013-04-29 10:26:00,57.6,43.4,29.84,SSW,203,3.8,11.6,59,0.00,,,0.00,WUHU216HW,2013-04-29 14:26:00,
2013-04-29 10:27:00,57.8,43.6,29.84,SSE,158,7.6,11.6,59,0.00,,,0.00,WUHU216HW,2013-04-29 14:27:00,
2013-04-29 10:30:00,57.8,43.1,29.85,SSE,158,9.2,11.6,58,0.00,,,0.00,WUHU216HW,2013-04-29 14:30:00,
2013-04-29 10:31:00,57.8,43.1,29.85,SSE,158,9.2,11.6,58,0.00,,,0.00,WUHU216HW,2013-04-29 14:31:00,
2013-04-29 10:32:00,57.8,43.1,29.84,South,180,8.1,11.0,58,0.00,,,0.00,WUHU216HW,2013-04-29 14:32:00,
2013-04-29 10:33:00,57.8,43.1,29.84,South,180,4.9,11.0,58,0.00,,,0.00,WUHU216HW,2013-04-29 14:33:00,
2013-04-29 10:35:00,57.6,42.9,29.85,SE,135,4.7,9.8,58,0.00,,,0.00,WUHU216HW,2013-04-29 14:35:00,
2013-04-29 10:36:00,57.6,42.9,29.85,SE,135,4.7,9.8,58,0.00,,,0.00,WUHU216HW,2013-04-29 14:36:00,
2013-04-29 10:37:00,57.6,42.9,29.84,SSE,158,9.2,9.8,58,0.00,,,0.00,WUHU216HW,2013-04-29 14:37:00,
2013-04-29 10:38:00,57.6,42.9,29.84,South,180,12.5,12.5,58,0.00,,,0.00,WUHU216HW,2013-04-29 14:38:00,
2013-04-29 10:40:00,57.4,42.8,29.85,South,180,8.5,12.8,58,0.00,,,0.00,WUHU216HW,2013-04-29 14:40:00,
2013-04-29 10:41:00,57.4,42.8,29.85,South,180,8.5,12.8,58,0.00,,,0.00,WUHU216HW,2013-04-29 14:41:00,
2013-04-29 10:42:00,57.4,42.8,29.85,South,180,8.5,12.8,58,0.00,,,0.00,WUHU216HW,2013-04-29 14:42:00,
2013-04-29 10:43:00,57.2,42.7,29.85,SE,135,9.8,12.8,58,0.00,,,0.00,WUHU216HW,2013-04-29 14:43:00,
2013-04-29 10:46:00,57.1,42.5,29.84,South,180,8.7,12.8,58,0.00,,,0.00,WUHU216HW,2013-04-29 14:46:00,
2013-04-29 10:47:00,57.1,42.5,29.85,South,180,5.4,12.8,58,0.00,,,0.00,WUHU216HW,2013-04-29 14:47:00,
2013-04-29 10:48:00,57.1,42.5,29.85,SSE,158,11.6,12.8,58,0.00,,,0.00,WUHU216HW,2013-04-29 14:48:00,
2013-04-29 10:51:00,56.9,42.3,29.85,SSE,158,10.3,12.8,58,0.00,,,0.00,WUHU216HW,2013-04-29 14:51:00,
2013-04-29 10:52:00,56.9,42.3,29.85,SSE,158,8.9,12.8,58,0.00,,,0.00,WUHU216HW,2013-04-29 14:52:00,
2013-04-29 10:53:00,57.1,42.5,29.85,SE,135,5.6,14.5,58,0.00,,,0.00,WUHU216HW,2013-04-29 14:53:00,
2013-04-29 10:56:00,56.9,42.8,29.85,South,180,9.2,14.5,59,0.00,,,0.00,WUHU216HW,2013-04-29 14:56:00,
2013-04-29 10:57:00,56.9,42.8,29.85,South,180,9.2,14.5,59,0.00,,,0.00,WUHU216HW,2013-04-29 14:57:00,
2013-04-29 10:59:00,56.9,42.8,29.85,SSE,158,4.9,14.5,59,0.00,,,0.00,WUHU216HW,2013-04-29 14:59:00,
2013-04-29 11:01:00,56.7,42.6,29.85,SSW,203,6.0,14.5,59,0.00,,,0.00,WUHU216HW,2013-04-29 15:01:00,
2013-04-29 11:02:00,56.7,42.6,29.85,ESE,113,4.3,14.5,59,0.00,,,0.00,WUHU216HW,2013-04-29 15:02:00,
2013-04-29 11:04:00,56.7,42.6,29.85,South,180,10.5,10.5,59,0.00,,,0.00,WUHU216HW,2013-04-29 15:04:00,
2013-04-29 11:06:00,56.5,42.4,29.85,South,180,8.9,10.5,59,0.00,,,0.00,WUHU216HW,2013-04-29 15:06:00,
2013-04-29 11:07:00,56.7,42.6,29.85,SSW,203,5.4,10.5,59,0.00,,,0.00,WUHU216HW,2013-04-29 15:07:00,
2013-04-29 11:09:00,56.5,42.8,29.85,SSE,158,7.6,10.5,60,0.00,,,0.00,WUHU216HW,2013-04-29 15:09:00,
2013-04-29 11:12:00,56.7,43.0,29.85,SE,135,10.1,10.5,60,0.00,,,0.00,WUHU216HW,2013-04-29 15:12:00,
2013-04-29 11:14:00,56.7,43.0,29.85,ESE,113,8.9,10.7,60,0.00,,,0.00,WUHU216HW,2013-04-29 15:14:00,
2013-04-29 11:17:00,56.7,43.0,29.85,South,180,5.6,10.7,60,0.00,,,0.00,WUHU216HW,2013-04-29 15:17:00,
2013-04-29 11:19:00,56.7,43.0,29.85,South,180,6.3,10.7,60,0.00,,,0.00,WUHU216HW,2013-04-29 15:19:00,
2013-04-29 11:22:00,56.5,42.8,29.85,SE,135,6.7,10.7,60,0.00,,,0.00,WUHU216HW,2013-04-29 15:22:00,
2013-04-29 11:23:00,56.5,42.8,29.85,SE,135,6.7,10.7,60,0.00,,,0.00,WUHU216HW,2013-04-29 15:23:00,
2013-04-29 11:25:00,56.7,43.0,29.85,SE,135,6.0,10.1,60,0.00,,,0.00,WUHU216HW,2013-04-29 15:25:00,
2013-04-29 11:27:00,56.5,42.8,29.85,SSE,158,7.8,10.1,60,0.00,,,0.00,WUHU216HW,2013-04-29 15:27:00,
2013-04-29 11:28:00,56.5,42.8,29.85,SSE,158,7.8,10.1,60,0.00,,,0.00,WUHU216HW,2013-04-29 15:28:00,
2013-04-29 11:29:00,56.7,43.0,29.85,South,180,7.8,10.1,60,0.00,,,0.00,WUHU216HW,2013-04-29 15:29:00,
2013-04-29 11:30:00,56.5,42.8,29.85,SE,135,7.6,9.8,60,0.00,,,0.00,WUHU216HW,2013-04-29 15:30:00,
2013-04-29 11:32:00,56.5,42.8,29.85,SE,135,5.8,9.8,60,0.00,,,0.00,WUHU216HW,2013-04-29 15:32:00,
2013-04-29 11:33:00,56.5,43.2,29.85,SE,135,4.0,9.8,61,0.00,,,0.00,WUHU216HW,2013-04-29 15:33:00,
2013-04-29 11:34:00,56.5,43.2,29.85,SSE,158,7.8,9.8,61,0.00,,,0.00,WUHU216HW,2013-04-29 15:34:00,
2013-04-29 11:35:00,56.7,43.4,29.85,South,180,6.9,9.8,61,0.00,,,0.00,WUHU216HW,2013-04-29 15:35:00,
2013-04-29 11:38:00,56.7,43.0,29.85,SE,135,4.9,8.9,60,0.00,,,0.00,WUHU216HW,2013-04-29 15:38:00,
2013-04-29 11:39:00,56.7,43.0,29.85,SE,135,6.9,7.8,60,0.00,,,0.00,WUHU216HW,2013-04-29 15:39:00,
2013-04-29 11:40:00,56.7,43.0,29.85,South,180,7.6,7.8,60,0.00,,,0.00,WUHU216HW,2013-04-29 15:40:00,
2013-04-29 11:43:00,56.9,43.2,29.84,SE,135,6.0,8.1,60,0.00,,,0.00,WUHU216HW,2013-04-29 15:43:00,
2013-04-29 11:44:00,56.9,43.2,29.85,SSW,203,9.2,9.2,60,0.00,,,0.00,WUHU216HW,2013-04-29 15:44:00,
2013-04-29 11:45:00,57.1,43.4,29.84,SSE,158,5.6,9.2,60,0.00,,,0.00,WUHU216HW,2013-04-29 15:45:00,
2013-04-29 11:48:00,57.2,43.6,29.84,South,180,11.4,11.4,60,0.00,,,0.00,WUHU216HW,2013-04-29 15:48:00,
2013-04-29 11:50:00,57.4,43.8,29.84,SE,135,9.6,11.4,60,0.00,,,0.00,WUHU216HW,2013-04-29 15:50:00,
2013-04-29 11:53:00,57.8,43.6,29.84,SSE,158,8.7,11.4,59,0.00,,,0.00,WUHU216HW,2013-04-29 15:53:00,
2013-04-29 11:55:00,58.0,43.7,29.84,SSW,203,7.4,11.4,59,0.00,,,0.00,WUHU216HW,2013-04-29 15:55:00,
2013-04-29 11:58:00,58.3,44.1,29.84,ESE,113,2.5,9.6,59,0.00,,,0.00,WUHU216HW,2013-04-29 15:58:00,
2013-04-29 12:00:00,58.7,44.4,29.84,SE,135,9.8,9.8,59,0.00,,,0.00,WUHU216HW,2013-04-29 16:00:00,
2013-04-29 12:03:00,58.9,44.1,29.84,SE,135,6.5,11.4,58,0.00,,,0.00,WUHU216HW,2013-04-29 16:03:00,
2013-04-29 12:04:00,58.9,44.1,29.84,SSE,158,6.3,11.4,58,0.00,,,0.00,WUHU216HW,2013-04-29 16:04:00,
2013-04-29 12:05:00,59.0,44.3,29.84,SW,225,7.6,11.4,58,0.00,,,0.00,WUHU216HW,2013-04-29 16:05:00,
2013-04-29 12:08:00,58.7,43.5,29.84,South,180,12.8,12.8,57,0.00,,,0.00,WUHU216HW,2013-04-29 16:08:00,
2013-04-29 12:09:00,58.7,43.5,29.84,South,180,8.5,12.8,57,0.00,,,0.00,WUHU216HW,2013-04-29 16:09:00,
2013-04-29 12:11:00,58.5,43.3,29.84,ESE,113,10.1,12.8,57,0.00,,,0.00,WUHU216HW,2013-04-29 16:11:00,
2013-04-29 12:14:00,58.3,43.1,29.84,South,180,8.9,13.2,57,0.00,,,0.00,WUHU216HW,2013-04-29 16:14:00,
2013-04-29 12:15:00,58.0,42.9,29.84,SSE,158,11.9,13.2,57,0.00,,,0.00,WUHU216HW,2013-04-29 16:15:00,
2013-04-29 12:16:00,58.0,42.9,29.84,SSE,158,11.9,13.2,57,0.00,,,0.00,WUHU216HW,2013-04-29 16:16:00,
2013-04-29 12:19:00,58.0,42.9,29.84,SE,135,9.4,14.5,57,0.00,,,0.00,WUHU216HW,2013-04-29 16:19:00,
2013-04-29 12:20:00,58.0,42.9,29.84,SE,135,9.4,14.5,57,0.00,,,0.00,WUHU216HW,2013-04-29 16:20:00,
2013-04-29 12:21:00,58.0,43.3,29.84,SSE,158,11.4,14.5,58,0.00,,,0.00,WUHU216HW,2013-04-29 16:21:00,
2013-04-29 12:24:00,57.6,42.5,29.84,SSE,158,7.8,14.5,57,0.00,,,0.00,WUHU216HW,2013-04-29 16:24:00,
2013-04-29 12:25:00,57.6,42.5,29.84,SSW,203,7.6,14.5,57,0.00,,,0.00,WUHU216HW,2013-04-29 16:25:00,
2013-04-29 12:26:00,57.6,42.5,29.84,SSW,203,7.6,12.3,57,0.00,,,0.00,WUHU216HW,2013-04-29 16:26:00,
2013-04-29 12:29:00,58.0,43.3,29.84,South,180,5.8,11.4,58,0.00,,,0.00,WUHU216HW,2013-04-29 16:29:00,
2013-04-29 12:30:00,58.0,43.3,29.84,SE,135,6.7,9.8,58,0.00,,,0.00,WUHU216HW,2013-04-29 16:30:00,
2013-04-29 12:31:00,58.0,43.3,29.84,South,180,12.1,12.1,58,0.00,,,0.00,WUHU216HW,2013-04-29 16:31:00,
2013-04-29 12:34:00,58.1,43.5,29.84,South,180,5.6,12.1,58,0.00,,,0.00,WUHU216HW,2013-04-29 16:34:00,
2013-04-29 12:35:00,58.1,43.5,29.84,SSE,158,7.2,12.1,58,0.00,,,0.00,WUHU216HW,2013-04-29 16:35:00,
2013-04-29 12:36:00,58.1,43.5,29.84,SE,135,5.4,12.1,58,0.00,,,0.00,WUHU216HW,2013-04-29 16:36:00,
2013-04-29 12:37:00,58.1,42.9,29.84,SSE,158,6.5,12.1,57,0.00,,,0.00,WUHU216HW,2013-04-29 16:37:00,
2013-04-29 12:40:00,58.3,43.1,29.84,South,180,8.3,12.1,57,0.00,,,0.00,WUHU216HW,2013-04-29 16:40:00,
2013-04-29 12:41:00,58.1,42.9,29.84,SSE,158,6.9,11.0,57,0.00,,,0.00,WUHU216HW,2013-04-29 16:41:00,
2013-04-29 12:42:00,58.1,42.9,29.84,SE,135,10.5,11.0,57,0.00,,,0.00,WUHU216HW,2013-04-29 16:42:00,
2013-04-29 12:45:00,58.1,42.9,29.84,SSE,158,8.5,11.0,57,0.00,,,0.00,WUHU216HW,2013-04-29 16:45:00,
2013-04-29 12:47:00,58.0,42.9,29.84,South,180,8.1,11.0,57,0.00,,,0.00,WUHU216HW,2013-04-29 16:47:00,
2013-04-29 12:50:00,58.0,42.9,29.84,South,180,4.7,10.5,57,0.00,,,0.00,WUHU216HW,2013-04-29 16:50:00,
2013-04-29 12:52:00,58.0,42.9,29.83,SSE,158,8.7,11.2,57,0.00,,,0.00,WUHU216HW,2013-04-29 16:52:00,
2013-04-29 12:55:00,58.3,43.6,29.83,SSE,158,9.8,11.2,58,0.00,,,0.00,WUHU216HW,2013-04-29 16:55:00,
2013-04-29 12:56:00,58.3,43.6,29.83,SSE,158,9.8,11.2,58,0.00,,,0.00,WUHU216HW,2013-04-29 16:56:00,
2013-04-29 12:57:00,58.3,43.1,29.83,SSE,158,11.0,11.2,57,0.00,,,0.00,WUHU216HW,2013-04-29 16:57:00,
2013-04-29 12:58:00,58.5,43.3,29.83,SSE,158,5.6,11.2,57,0.00,,,0.00,WUHU216HW,2013-04-29 16:58:00,
2013-04-29 13:00:00,58.5,43.3,29.83,South,180,12.8,12.8,57,0.00,,,0.00,WUHU216HW,2013-04-29 17:00:00,
2013-04-29 13:01:00,58.5,43.3,29.83,South,180,12.8,12.8,57,0.00,,,0.00,WUHU216HW,2013-04-29 17:01:00,
2013-04-29 13:02:00,58.5,43.3,29.83,South,180,7.6,12.8,57,0.00,,,0.00,WUHU216HW,2013-04-29 17:02:00,
2013-04-29 13:03:00,58.5,43.3,29.83,SSE,158,12.1,12.8,57,0.00,,,0.00,WUHU216HW,2013-04-29 17:03:00,
2013-04-29 13:06:00,58.7,43.5,29.83,SE,135,7.4,12.8,57,0.00,,,0.00,WUHU216HW,2013-04-29 17:06:00,
2013-04-29 13:07:00,58.7,43.5,29.83,SSE,158,9.2,12.8,57,0.00,,,0.00,WUHU216HW,2013-04-29 17:07:00,
2013-04-29 13:08:00,58.7,43.5,29.83,SE,135,11.2,12.8,57,0.00,,,0.00,WUHU216HW,2013-04-29 17:08:00,
2013-04-29 13:11:00,58.7,43.5,29.83,South,180,5.4,12.1,57,0.00,,,0.00,WUHU216HW,2013-04-29 17:11:00,
2013-04-29 13:12:00,58.7,43.5,29.84,SSE,158,6.3,12.1,57,0.00,,,0.00,WUHU216HW,2013-04-29 17:12:00,
2013-04-29 13:13:00,58.7,43.5,29.83,SSW,203,8.5,11.2,57,0.00,,,0.00,WUHU216HW,2013-04-29 17:13:00,
2013-04-29 13:17:00,58.9,43.7,29.83,SSE,158,7.4,11.2,57,0.00,,,0.00,WUHU216HW,2013-04-29 17:17:00,
2013-04-29 13:18:00,58.9,43.7,29.83,SSE,158,7.4,11.0,57,0.00,,,0.00,WUHU216HW,2013-04-29 17:18:00,
2013-04-29 13:22:00,59.0,43.7,29.83,SSW,203,8.3,11.0,57,0.00,,,0.00,WUHU216HW,2013-04-29 17:22:00,
2013-04-29 13:23:00,59.0,43.7,29.83,SSW,203,8.3,11.0,57,0.00,,,0.00,WUHU216HW,2013-04-29 17:23:00,
2013-04-29 13:27:00,59.4,44.1,29.83,SSE,158,10.7,10.7,57,0.00,,,0.00,WUHU216HW,2013-04-29 17:27:00,
2013-04-29 13:28:00,59.4,44.1,29.83,SSE,158,10.7,10.7,57,0.00,,,0.00,WUHU216HW,2013-04-29 17:28:00,
2013-04-29 13:32:00,59.8,44.0,29.83,SSE,158,7.8,11.4,56,0.00,,,0.00,WUHU216HW,2013-04-29 17:32:00,
2013-04-29 13:33:00,59.8,44.0,29.83,SSE,158,7.8,11.4,56,0.00,,,0.00,WUHU216HW,2013-04-29 17:33:00,
2013-04-29 13:37:00,60.1,44.4,29.83,SSE,158,9.6,11.4,56,0.00,,,0.00,WUHU216HW,2013-04-29 17:37:00,
2013-04-29 13:38:00,60.1,44.4,29.83,SSE,158,9.6,11.4,56,0.00,,,0.00,WUHU216HW,2013-04-29 17:38:00,
2013-04-29 13:39:00,60.1,44.4,29.83,South,180,8.5,11.4,56,0.00,,,0.00,WUHU216HW,2013-04-29 17:39:00,
2013-04-29 13:42:00,60.5,44.2,29.83,ESE,113,6.5,9.6,55,0.00,,,0.00,WUHU216HW,2013-04-29 17:42:00,
2013-04-29 13:43:00,60.5,44.2,29.83,ESE,113,6.5,9.6,55,0.00,,,0.00,WUHU216HW,2013-04-29 17:43:00,
2013-04-29 13:44:00,60.7,44.4,29.83,SSE,158,6.0,9.6,55,0.00,,,0.00,WUHU216HW,2013-04-29 17:44:00,
2013-04-29 13:47:00,60.7,44.4,29.83,South,180,12.8,12.8,55,0.00,,,0.00,WUHU216HW,2013-04-29 17:47:00,
2013-04-29 13:48:00,60.7,44.4,29.83,South,180,12.8,12.8,55,0.00,,,0.00,WUHU216HW,2013-04-29 17:48:00,
2013-04-29 13:49:00,60.7,44.4,29.83,South,180,6.7,12.8,55,0.00,,,0.00,WUHU216HW,2013-04-29 17:49:00,
2013-04-29 13:52:00,60.7,43.9,29.83,SE,135,9.8,12.8,54,0.00,,,0.00,WUHU216HW,2013-04-29 17:52:00,
2013-04-29 13:53:00,60.7,43.9,29.83,SE,135,9.8,12.8,54,0.00,,,0.00,WUHU216HW,2013-04-29 17:53:00,
2013-04-29 13:54:00,60.7,44.4,29.83,SSE,158,7.2,12.8,55,0.00,,,0.00,WUHU216HW,2013-04-29 17:54:00,
2013-04-29 13:57:00,60.8,44.6,29.83,SE,135,5.6,9.8,55,0.00,,,0.00,WUHU216HW,2013-04-29 17:57:00,
2013-04-29 13:58:00,60.8,44.6,29.83,SE,135,5.6,9.8,55,0.00,,,0.00,WUHU216HW,2013-04-29 17:58:00,
2013-04-29 13:59:00,61.0,44.7,29.83,South,180,6.9,9.8,55,0.00,,,0.00,WUHU216HW,2013-04-29 17:59:00,
2013-04-29 14:02:00,61.4,45.0,29.83,SSE,158,4.5,11.4,55,0.00,,,0.00,WUHU216HW,2013-04-29 18:02:00,
2013-04-29 14:04:00,61.6,45.2,29.83,SE,135,4.3,11.4,55,0.00,,,0.00,WUHU216HW,2013-04-29 18:04:00,
2013-04-29 14:08:00,61.6,44.7,29.83,SSE,158,4.7,11.4,54,0.00,,,0.00,WUHU216HW,2013-04-29 18:08:00,
2013-04-29 14:09:00,61.6,44.7,29.83,SE,135,4.0,11.4,54,0.00,,,0.00,WUHU216HW,2013-04-29 18:09:00,
2013-04-29 14:13:00,61.6,45.2,29.83,SW,225,5.4,10.7,55,0.00,,,0.00,WUHU216HW,2013-04-29 18:13:00,
2013-04-29 14:14:00,61.6,45.2,29.83,SSE,158,7.6,10.7,55,0.00,,,0.00,WUHU216HW,2013-04-29 18:14:00,
2013-04-29 14:18:00,61.6,44.7,29.83,South,180,8.7,10.7,54,0.00,,,0.00,WUHU216HW,2013-04-29 18:18:00,
2013-04-29 14:19:00,61.6,44.7,29.83,SSE,158,7.2,10.7,54,0.00,,,0.00,WUHU216HW,2013-04-29 18:19:00,
2013-04-29 14:20:00,61.6,44.7,29.83,SSE,158,7.2,10.7,54,0.00,,,0.00,WUHU216HW,2013-04-29 18:20:00,
2013-04-29 14:23:00,61.4,44.1,29.83,SSW,203,5.4,10.1,53,0.00,,,0.00,WUHU216HW,2013-04-29 18:23:00,
2013-04-29 14:24:00,61.2,44.4,29.83,SSE,158,8.5,10.1,54,0.00,,,0.00,WUHU216HW,2013-04-29 18:24:00,
2013-04-29 14:25:00,61.2,44.4,29.83,SSE,158,8.5,10.1,54,0.00,,,0.00,WUHU216HW,2013-04-29 18:25:00,
2013-04-29 14:28:00,60.8,44.1,29.83,SSE,158,4.7,11.0,54,0.00,,,0.00,WUHU216HW,2013-04-29 18:28:00,
2013-04-29 14:29:00,60.8,44.1,29.83,SE,135,6.5,11.0,54,0.00,,,0.00,WUHU216HW,2013-04-29 18:29:00,
2013-04-29 14:30:00,60.8,44.1,29.83,SE,135,6.5,11.0,54,0.00,,,0.00,WUHU216HW,2013-04-29 18:30:00,
2013-04-29 14:33:00,60.3,44.0,29.83,SSE,158,5.1,11.0,55,0.00,,,0.00,WUHU216HW,2013-04-29 18:33:00,
2013-04-29 14:34:00,60.3,44.0,29.83,South,180,5.4,11.0,55,0.00,,,0.00,WUHU216HW,2013-04-29 18:34:00,
2013-04-29 14:35:00,60.3,44.0,29.83,South,180,5.4,11.0,55,0.00,,,0.00,WUHU216HW,2013-04-29 18:35:00,
2013-04-29 14:38:00,59.9,44.2,29.84,SSE,158,6.3,11.0,56,0.00,,,0.00,WUHU216HW,2013-04-29 18:38:00,
2013-04-29 14:40:00,59.9,44.2,29.84,SSE,158,5.8,11.0,56,0.00,,,0.00,WUHU216HW,2013-04-29 18:40:00,
2013-04-29 14:43:00,59.8,44.0,29.84,SSE,158,5.1,10.5,56,0.00,,,0.00,WUHU216HW,2013-04-29 18:43:00,
2013-04-29 14:45:00,59.6,43.8,29.83,South,180,8.5,10.5,56,0.00,,,0.00,WUHU216HW,2013-04-29 18:45:00,
2013-04-29 14:49:00,59.8,44.5,29.83,SSE,158,5.4,9.4,57,0.00,,,0.00,WUHU216HW,2013-04-29 18:49:00,
2013-04-29 14:50:00,59.8,44.5,29.83,SSE,158,3.6,8.5,57,0.00,,,0.00,WUHU216HW,2013-04-29 18:50:00,
2013-04-29 14:55:00,59.8,44.5,29.83,SSE,158,3.1,6.5,57,0.00,,,0.00,WUHU216HW,2013-04-29 18:55:00,
2013-04-29 14:56:00,59.8,44.5,29.83,SSE,158,3.1,6.5,57,0.00,,,0.00,WUHU216HW,2013-04-29 18:56:00,
2013-04-29 15:00:00,59.9,44.6,29.83,South,180,6.0,7.6,57,0.00,,,0.00,WUHU216HW,2013-04-29 19:00:00,
2013-04-29 15:01:00,59.8,44.5,29.83,South,180,9.2,9.2,57,0.00,,,0.00,WUHU216HW,2013-04-29 19:01:00,
2013-04-29 15:05:00,59.4,44.1,29.83,South,180,5.6,9.2,57,0.00,,,0.00,WUHU216HW,2013-04-29 19:05:00,
2013-04-29 15:06:00,59.4,44.1,29.83,SSE,158,6.3,9.2,57,0.00,,,0.00,WUHU216HW,2013-04-29 19:06:00,
2013-04-29 15:10:00,59.4,44.1,29.83,SE,135,6.5,9.2,57,0.00,,,0.00,WUHU216HW,2013-04-29 19:10:00,
2013-04-29 15:11:00,59.2,43.9,29.83,SSE,158,9.2,9.2,57,0.00,,,0.00,WUHU216HW,2013-04-29 19:11:00,
2013-04-29 15:12:00,59.0,43.7,29.83,SSE,158,9.6,9.6,57,0.00,,,0.00,WUHU216HW,2013-04-29 19:12:00,
2013-04-29 15:15:00,58.9,43.7,29.83,SSE,158,6.3,9.6,57,0.00,,,0.00,WUHU216HW,2013-04-29 19:15:00,
2013-04-29 15:16:00,58.9,43.7,29.83,SSE,158,5.4,9.6,57,0.00,,,0.00,WUHU216HW,2013-04-29 19:16:00,
2013-04-29 15:17:00,58.9,44.1,29.83,SW,225,6.5,9.6,58,0.00,,,0.00,WUHU216HW,2013-04-29 19:17:00,
2013-04-29 15:20:00,58.7,43.9,29.83,SE,135,3.6,9.8,58,0.00,,,0.00,WUHU216HW,2013-04-29 19:20:00,
2013-04-29 15:21:00,58.7,43.9,29.83,SSW,203,5.6,9.8,58,0.00,,,0.00,WUHU216HW,2013-04-29 19:21:00,
2013-04-29 15:22:00,58.5,43.7,29.83,SSW,203,6.9,9.8,58,0.00,,,0.00,WUHU216HW,2013-04-29 19:22:00,
2013-04-29 15:26:00,58.5,43.7,29.83,South,180,8.5,9.8,58,0.00,,,0.00,WUHU216HW,2013-04-29 19:26:00,
2013-04-29 15:27:00,58.5,43.7,29.83,South,180,8.5,9.8,58,0.00,,,0.00,WUHU216HW,2013-04-29 19:27:00,
2013-04-29 15:31:00,58.5,44.2,29.83,SSE,158,9.2,9.2,59,0.00,,,0.00,WUHU216HW,2013-04-29 19:31:00,
2013-04-29 15:32:00,58.5,44.2,29.83,SSE,158,9.2,9.2,59,0.00,,,0.00,WUHU216HW,2013-04-29 19:32:00,
2013-04-29 15:36:00,58.3,44.1,29.83,South,180,4.7,11.2,59,0.00,,,0.00,WUHU216HW,2013-04-29 19:36:00,
2013-04-29 15:37:00,58.3,44.1,29.83,South,180,4.7,11.2,59,0.00,,,0.00,WUHU216HW,2013-04-29 19:37:00,
2013-04-29 15:41:00,58.3,44.6,29.83,SSE,158,7.6,11.2,60,0.00,,,0.00,WUHU216HW,2013-04-29 19:41:00,
2013-04-29 15:42:00,58.3,44.6,29.83,SSE,158,7.6,11.2,60,0.00,,,0.00,WUHU216HW,2013-04-29 19:42:00,
2013-04-29 15:43:00,58.1,44.4,29.83,SSE,158,7.8,11.2,60,0.00,,,0.00,WUHU216HW,2013-04-29 19:43:00,
2013-04-29 15:46:00,58.0,44.7,29.83,SSW,203,6.7,11.2,61,0.00,,,0.00,WUHU216HW,2013-04-29 19:46:00,
2013-04-29 15:47:00,58.0,44.7,29.83,South,180,9.2,11.2,61,0.00,,,0.00,WUHU216HW,2013-04-29 19:47:00,
2013-04-29 15:48:00,58.0,44.7,29.83,South,180,9.2,11.2,61,0.00,,,0.00,WUHU216HW,2013-04-29 19:48:00,
2013-04-29 15:51:00,57.6,44.6,29.82,SSE,158,5.6,9.6,62,0.00,,,0.00,WUHU216HW,2013-04-29 19:51:00,
2013-04-29 15:52:00,57.6,44.6,29.82,SSE,158,5.6,9.6,62,0.00,,,0.00,WUHU216HW,2013-04-29 19:52:00,
2013-04-29 15:53:00,57.4,44.6,29.82,SSE,158,6.9,9.6,62,0.00,,,0.00,WUHU216HW,2013-04-29 19:53:00,
2013-04-29 15:56:00,57.2,44.4,29.82,SSW,203,5.1,9.2,62,0.00,,,0.00,WUHU216HW,2013-04-29 19:56:00,
2013-04-29 15:57:00,57.2,44.4,29.82,SSW,203,5.1,8.3,62,0.00,,,0.00,WUHU216HW,2013-04-29 19:57:00,
2013-04-29 15:58:00,57.2,44.7,29.82,SSE,158,6.5,8.3,63,0.00,,,0.00,WUHU216HW,2013-04-29 19:58:00,
2013-04-29 16:01:00,57.1,44.6,29.82,SE,135,7.6,7.6,63,0.00,,,0.00,WUHU216HW,2013-04-29 20:01:00,
2013-04-29 16:02:00,57.1,44.6,29.82,SSE,158,6.5,7.6,63,0.00,,,0.00,WUHU216HW,2013-04-29 20:02:00,
2013-04-29 16:03:00,57.1,45.0,29.82,South,180,6.9,7.6,64,0.00,,,0.00,WUHU216HW,2013-04-29 20:03:00,
2013-04-29 16:06:00,56.9,44.8,29.82,SE,135,4.5,9.4,64,0.00,,,0.00,WUHU216HW,2013-04-29 20:06:00,
2013-04-29 16:08:00,56.9,44.8,29.82,South,180,7.2,9.4,64,0.00,,,0.00,WUHU216HW,2013-04-29 20:08:00,
2013-04-29 16:11:00,56.9,44.4,29.82,SE,135,4.9,9.4,63,0.00,,,0.00,WUHU216HW,2013-04-29 20:11:00,
2013-04-29 16:13:00,56.9,44.8,29.82,SSE,158,5.4,9.4,64,0.00,,,0.00,WUHU216HW,2013-04-29 20:13:00,
2013-04-29 16:14:00,56.7,44.7,29.82,SE,135,5.4,7.2,64,0.00,,,0.00,WUHU216HW,2013-04-29 20:14:00,
2013-04-29 16:17:00,56.9,44.8,29.82,SSW,203,6.9,7.2,64,0.00,,,0.00,WUHU216HW,2013-04-29 20:17:00,
2013-04-29 16:18:00,56.9,44.4,29.82,SSE,158,6.9,6.9,63,0.00,,,0.00,WUHU216HW,2013-04-29 20:18:00,
2013-04-29 16:19:00,56.9,44.4,29.82,SSE,158,5.8,6.9,63,0.00,,,0.00,WUHU216HW,2013-04-29 20:19:00,
2013-04-29 16:22:00,56.7,44.2,29.82,South,180,3.4,6.9,63,0.00,,,0.00,WUHU216HW,2013-04-29 20:22:00,
2013-04-29 16:23:00,56.9,44.4,29.82,SSE,158,4.7,6.9,63,0.00,,,0.00,WUHU216HW,2013-04-29 20:23:00,
2013-04-29 16:24:00,56.9,44.4,29.82,SSE,158,4.7,6.9,63,0.00,,,0.00,WUHU216HW,2013-04-29 20:24:00,
2013-04-29 16:28:00,56.9,44.4,29.82,ESE,113,4.9,8.9,63,0.00,,,0.00,WUHU216HW,2013-04-29 20:28:00,
2013-04-29 16:29:00,56.9,44.4,29.82,SSE,158,5.4,8.9,63,0.00,,,0.00,WUHU216HW,2013-04-29 20:29:00,
2013-04-29 16:33:00,57.1,44.6,29.82,SE,135,5.4,9.8,63,0.00,,,0.00,WUHU216HW,2013-04-29 20:33:00,
2013-04-29 16:34:00,57.1,44.6,29.82,South,180,7.4,9.8,63,0.00,,,0.00,WUHU216HW,2013-04-29 20:34:00,
2013-04-29 16:38:00,57.2,44.7,29.82,SSE,158,6.7,9.8,63,0.00,,,0.00,WUHU216HW,2013-04-29 20:38:00,
2013-04-29 16:39:00,57.2,44.7,29.82,SSE,158,7.8,7.8,63,0.00,,,0.00,WUHU216HW,2013-04-29 20:39:00,
2013-04-29 16:40:00,57.4,44.9,29.82,South,180,5.4,7.8,63,0.00,,,0.00,WUHU216HW,2013-04-29 20:40:00,
2013-04-29 16:43:00,57.2,44.4,29.82,SSE,158,5.6,9.4,62,0.00,,,0.00,WUHU216HW,2013-04-29 20:43:00,
2013-04-29 16:44:00,57.4,44.6,29.82,SE,135,5.6,9.4,62,0.00,,,0.00,WUHU216HW,2013-04-29 20:44:00,
2013-04-29 16:45:00,57.2,44.7,29.82,South,180,7.8,9.4,63,0.00,,,0.00,WUHU216HW,2013-04-29 20:45:00,
2013-04-29 16:48:00,57.2,44.7,29.82,SE,135,6.3,10.3,63,0.00,,,0.00,WUHU216HW,2013-04-29 20:48:00,
2013-04-29 16:49:00,57.2,44.7,29.82,SSE,158,5.6,10.3,63,0.00,,,0.00,WUHU216HW,2013-04-29 20:49:00,
2013-04-29 16:50:00,57.2,44.7,29.82,SSE,158,3.4,10.3,63,0.00,,,0.00,WUHU216HW,2013-04-29 20:50:00,
2013-04-29 16:53:00,57.2,44.7,29.82,SSE,158,4.7,10.3,63,0.00,,,0.00,WUHU216HW,2013-04-29 20:53:00,
2013-04-29 16:54:00,57.2,44.7,29.82,South,180,8.9,10.3,63,0.00,,,0.00,WUHU216HW,2013-04-29 20:54:00,
2013-04-29 16:55:00,57.2,44.7,29.82,South,180,8.9,10.3,63,0.00,,,0.00,WUHU216HW,2013-04-29 20:55:00,
2013-04-29 16:56:00,57.2,45.2,29.82,South,180,9.8,9.8,64,0.00,,,0.00,WUHU216HW,2013-04-29 20:56:00,
2013-04-29 16:59:00,57.2,45.2,29.82,South,180,12.8,12.8,64,0.00,,,0.00,WUHU216HW,2013-04-29 20:59:00,
2013-04-29 17:00:00,57.2,45.2,29.82,SSE,158,6.0,12.8,64,0.00,,,0.00,WUHU216HW,2013-04-29 21:00:00,
2013-04-29 17:01:00,57.2,45.5,29.82,SSE,158,7.8,12.8,65,0.00,,,0.00,WUHU216HW,2013-04-29 21:01:00,
2013-04-29 17:04:00,57.2,45.2,29.83,SSE,158,4.7,12.8,64,0.00,,,0.00,WUHU216HW,2013-04-29 21:04:00,
2013-04-29 17:05:00,57.1,45.8,29.82,SSW,203,10.5,12.8,66,0.00,,,0.00,WUHU216HW,2013-04-29 21:05:00,
2013-04-29 17:06:00,57.1,45.4,29.82,SE,135,7.6,12.8,65,0.00,,,0.00,WUHU216HW,2013-04-29 21:06:00,
2013-04-29 17:09:00,57.1,45.4,29.83,SSE,158,7.6,11.0,65,0.00,,,0.00,WUHU216HW,2013-04-29 21:09:00,
2013-04-29 17:10:00,56.9,45.2,29.83,South,180,10.7,11.0,65,0.00,,,0.00,WUHU216HW,2013-04-29 21:10:00,
2013-04-29 17:11:00,56.9,45.2,29.83,SE,135,7.2,11.0,65,0.00,,,0.00,WUHU216HW,2013-04-29 21:11:00,
2013-04-29 17:12:00,56.9,45.2,29.83,SE,135,7.2,11.0,65,0.00,,,0.00,WUHU216HW,2013-04-29 21:12:00,
2013-04-29 17:14:00,56.9,45.2,29.83,South,180,8.9,11.0,65,0.00,,,0.00,WUHU216HW,2013-04-29 21:14:00,
2013-04-29 17:15:00,56.7,45.0,29.83,SSE,158,5.1,11.0,65,0.00,,,0.00,WUHU216HW,2013-04-29 21:15:00,
2013-04-29 17:16:00,56.7,45.0,29.83,SSE,158,6.9,11.0,65,0.00,,,0.00,WUHU216HW,2013-04-29 21:16:00,
2013-04-29 17:17:00,56.9,45.2,29.83,SSE,158,4.3,10.7,65,0.00,,,0.00,WUHU216HW,2013-04-29 21:17:00,
2013-04-29 17:19:00,56.9,45.2,29.83,SSE,158,11.4,11.4,65,0.00,,,0.00,WUHU216HW,2013-04-29 21:19:00,
2013-04-29 17:20:00,56.9,45.2,29.83,South,180,11.9,11.9,65,0.00,,,0.00,WUHU216HW,2013-04-29 21:20:00,
2013-04-29 17:21:00,56.9,44.8,29.83,SE,135,9.2,11.9,64,0.00,,,0.00,WUHU216HW,2013-04-29 21:21:00,
2013-04-29 17:22:00,56.9,45.2,29.83,SSE,158,11.6,11.9,65,0.00,,,0.00,WUHU216HW,2013-04-29 21:22:00,
2013-04-29 17:25:00,56.9,45.2,29.83,SSE,158,10.5,11.9,65,0.00,,,0.00,WUHU216HW,2013-04-29 21:25:00,
2013-04-29 17:26:00,56.9,45.2,29.83,South,180,9.4,11.9,65,0.00,,,0.00,WUHU216HW,2013-04-29 21:26:00,
2013-04-29 17:27:00,56.9,45.6,29.83,South,180,6.5,11.9,66,0.00,,,0.00,WUHU216HW,2013-04-29 21:27:00,
2013-04-29 17:30:00,56.9,45.2,29.83,South,180,4.0,11.9,65,0.00,,,0.00,WUHU216HW,2013-04-29 21:30:00,
2013-04-29 17:31:00,56.9,45.6,29.83,South,180,9.6,11.6,66,0.00,,,0.00,WUHU216HW,2013-04-29 21:31:00,
2013-04-29 17:32:00,57.1,45.8,29.83,South,180,8.3,11.0,66,0.00,,,0.00,WUHU216HW,2013-04-29 21:32:00,
2013-04-29 17:35:00,57.1,45.4,29.83,SSE,158,5.4,9.6,65,0.00,,,0.00,WUHU216HW,2013-04-29 21:35:00,
2013-04-29 17:36:00,57.1,45.4,29.83,SSE,158,6.0,9.6,65,0.00,,,0.00,WUHU216HW,2013-04-29 21:36:00,
2013-04-29 17:37:00,57.2,45.5,29.83,SSE,158,6.7,9.6,65,0.00,,,0.00,WUHU216HW,2013-04-29 21:37:00,
2013-04-29 17:40:00,57.2,45.5,29.83,SE,135,6.0,9.8,65,0.00,,,0.00,WUHU216HW,2013-04-29 21:40:00,
2013-04-29 17:41:00,56.9,45.2,29.83,South,180,6.0,9.8,65,0.00,,,0.00,WUHU216HW,2013-04-29 21:41:00,
2013-04-29 17:43:00,57.1,45.8,29.83,SSE,158,5.4,9.8,66,0.00,,,0.00,WUHU216HW,2013-04-29 21:43:00,
2013-04-29 17:45:00,56.9,45.6,29.83,SSE,158,4.0,9.8,66,0.00,,,0.00,WUHU216HW,2013-04-29 21:45:00,
2013-04-29 17:46:00,56.9,45.6,29.83,SSW,203,5.4,9.8,66,0.00,,,0.00,WUHU216HW,2013-04-29 21:46:00,
2013-04-29 17:48:00,56.7,45.5,29.83,SSE,158,6.9,8.7,66,0.00,,,0.00,WUHU216HW,2013-04-29 21:48:00,
2013-04-29 17:50:00,56.9,45.6,29.83,South,180,6.9,8.7,66,0.00,,,0.00,WUHU216HW,2013-04-29 21:50:00,
2013-04-29 17:51:00,56.7,45.5,29.84,South,180,8.1,8.1,66,0.00,,,0.00,WUHU216HW,2013-04-29 21:51:00,
2013-04-29 17:52:00,56.7,45.5,29.84,South,180,8.1,8.1,66,0.00,,,0.00,WUHU216HW,2013-04-29 21:52:00,
2013-04-29 17:54:00,56.5,45.3,29.83,SSE,158,8.7,8.7,66,0.00,,,0.00,WUHU216HW,2013-04-29 21:54:00,
2013-04-29 17:55:00,56.5,45.3,29.83,South,180,7.6,8.7,66,0.00,,,0.00,WUHU216HW,2013-04-29 21:55:00,
2013-04-29 17:56:00,56.3,45.1,29.83,South,180,6.0,8.7,66,0.00,,,0.00,WUHU216HW,2013-04-29 21:56:00,
2013-04-29 17:57:00,56.3,45.1,29.83,South,180,6.0,8.7,66,0.00,,,0.00,WUHU216HW,2013-04-29 21:57:00,
2013-04-29 17:59:00,56.2,44.9,29.83,South,180,6.0,8.7,66,0.00,,,0.00,WUHU216HW,2013-04-29 21:59:00,
2013-04-29 18:00:00,56.3,45.1,29.83,SSE,158,4.0,8.7,66,0.00,,,0.00,WUHU216HW,2013-04-29 22:00:00,
2013-04-29 18:01:00,56.2,44.9,29.83,SSE,158,3.4,8.7,66,0.00,,,0.00,WUHU216HW,2013-04-29 22:01:00,
2013-04-29 18:02:00,56.2,45.4,29.83,SSE,158,4.9,8.7,67,0.00,,,0.00,WUHU216HW,2013-04-29 22:02:00,
2013-04-29 18:04:00,56.2,44.9,29.83,SE,135,5.1,7.6,66,0.00,,,0.00,WUHU216HW,2013-04-29 22:04:00,
2013-04-29 18:05:00,56.2,44.9,29.83,SE,135,6.9,7.6,66,0.00,,,0.00,WUHU216HW,2013-04-29 22:05:00,
2013-04-29 18:06:00,56.0,44.7,29.83,South,180,6.7,7.6,66,0.00,,,0.00,WUHU216HW,2013-04-29 22:06:00,
2013-04-29 18:07:00,56.0,45.2,29.83,South,180,6.7,7.6,67,0.00,,,0.00,WUHU216HW,2013-04-29 22:07:00,
2013-04-29 18:09:00,55.8,45.0,29.83,South,180,5.4,7.6,67,0.00,,,0.00,WUHU216HW,2013-04-29 22:09:00,
2013-04-29 18:10:00,55.8,45.0,29.84,SSE,158,5.8,6.9,67,0.00,,,0.00,WUHU216HW,2013-04-29 22:10:00,
2013-04-29 18:12:00,55.8,45.0,29.84,South,180,4.7,6.9,67,0.00,,,0.00,WUHU216HW,2013-04-29 22:12:00,
2013-04-29 18:14:00,55.6,44.4,29.83,SSE,158,5.4,6.9,66,0.00,,,0.00,WUHU216HW,2013-04-29 22:14:00,
2013-04-29 18:15:00,55.6,44.8,29.83,SSE,158,4.7,6.9,67,0.00,,,0.00,WUHU216HW,2013-04-29 22:15:00,
2013-04-29 18:17:00,55.6,44.8,29.83,SSE,158,7.2,7.2,67,0.00,,,0.00,WUHU216HW,2013-04-29 22:17:00,
2013-04-29 18:18:00,55.4,44.6,29.83,SSE,158,6.3,7.2,67,0.00,,,0.00,WUHU216HW,2013-04-29 22:18:00,
2013-04-29 18:19:00,55.4,44.6,29.83,South,180,9.2,9.2,67,0.00,,,0.00,WUHU216HW,2013-04-29 22:19:00,
2013-04-29 18:21:00,55.3,44.5,29.83,SSW,203,4.7,9.2,67,0.00,,,0.00,WUHU216HW,2013-04-29 22:21:00,
2013-04-29 18:22:00,55.3,44.5,29.83,SSE,158,8.1,9.2,67,0.00,,,0.00,WUHU216HW,2013-04-29 22:22:00,
2013-04-29 18:23:00,55.3,44.5,29.83,SSE,158,8.5,9.2,67,0.00,,,0.00,WUHU216HW,2013-04-29 22:23:00,
2013-04-29 18:25:00,55.1,44.3,29.84,SSE,158,7.2,9.2,67,0.00,,,0.00,WUHU216HW,2013-04-29 22:25:00,
2013-04-29 18:26:00,55.1,44.3,29.83,South,180,8.7,9.2,67,0.00,,,0.00,WUHU216HW,2013-04-29 22:26:00,
2013-04-29 18:27:00,55.1,44.3,29.84,SSE,158,9.6,9.6,67,0.00,,,0.00,WUHU216HW,2013-04-29 22:27:00,
2013-04-29 18:28:00,55.1,44.3,29.84,South,180,5.8,9.6,67,0.00,,,0.00,WUHU216HW,2013-04-29 22:28:00,
2013-04-29 18:30:00,54.9,44.1,29.84,SSE,158,4.5,9.6,67,0.00,,,0.00,WUHU216HW,2013-04-29 22:30:00,
2013-04-29 18:31:00,54.9,44.6,29.84,SSE,158,5.4,9.6,68,0.00,,,0.00,WUHU216HW,2013-04-29 22:31:00,
2013-04-29 18:32:00,54.7,44.4,29.84,South,180,8.5,9.6,68,0.00,,,0.00,WUHU216HW,2013-04-29 22:32:00,
2013-04-29 18:33:00,54.7,44.4,29.84,South,180,8.5,9.6,68,0.00,,,0.00,WUHU216HW,2013-04-29 22:33:00,
2013-04-29 18:35:00,54.7,44.4,29.83,SE,135,6.5,9.6,68,0.00,,,0.00,WUHU216HW,2013-04-29 22:35:00,
2013-04-29 18:36:00,54.5,44.2,29.83,SE,135,6.3,9.6,68,0.00,,,0.00,WUHU216HW,2013-04-29 22:36:00,
2013-04-29 18:38:00,54.7,44.4,29.83,SE,135,6.3,8.5,68,0.00,,,0.00,WUHU216HW,2013-04-29 22:38:00,
2013-04-29 18:39:00,54.5,44.2,29.83,SE,135,3.4,8.5,68,0.00,,,0.00,WUHU216HW,2013-04-29 22:39:00,
2013-04-29 18:40:00,54.4,44.0,29.83,SSE,158,9.4,9.4,68,0.00,,,0.00,WUHU216HW,2013-04-29 22:40:00,
2013-04-29 18:41:00,54.5,44.2,29.83,SSE,158,3.8,9.4,68,0.00,,,0.00,WUHU216HW,2013-04-29 22:41:00,
2013-04-29 18:43:00,54.4,44.0,29.83,South,180,5.4,9.4,68,0.00,,,0.00,WUHU216HW,2013-04-29 22:43:00,
2013-04-29 18:44:00,54.4,44.0,29.83,SE,135,4.5,9.4,68,0.00,,,0.00,WUHU216HW,2013-04-29 22:44:00,
2013-04-29 18:45:00,54.4,44.0,29.83,SSE,158,5.4,9.4,68,0.00,,,0.00,WUHU216HW,2013-04-29 22:45:00,
2013-04-29 18:46:00,54.4,44.0,29.83,SSE,158,6.3,9.4,68,0.00,,,0.00,WUHU216HW,2013-04-29 22:46:00,
2013-04-29 18:48:00,54.4,44.0,29.83,ESE,113,4.7,9.4,68,0.00,,,0.00,WUHU216HW,2013-04-29 22:48:00,
2013-04-29 18:49:00,54.4,44.0,29.83,SSE,158,4.7,9.4,68,0.00,,,0.00,WUHU216HW,2013-04-29 22:49:00,
2013-04-29 18:51:00,54.4,44.0,29.83,SE,135,3.8,6.3,68,0.00,,,0.00,WUHU216HW,2013-04-29 22:51:00,
2013-04-29 18:52:00,54.4,44.0,29.83,SSE,158,6.3,6.3,68,0.00,,,0.00,WUHU216HW,2013-04-29 22:52:00,
2013-04-29 18:53:00,54.4,44.0,29.83,SE,135,2.5,6.3,68,0.00,,,0.00,WUHU216HW,2013-04-29 22:53:00,
2013-04-29 18:54:00,54.4,44.0,29.83,SE,135,2.5,6.3,68,0.00,,,0.00,WUHU216HW,2013-04-29 22:54:00,
2013-04-29 18:56:00,54.4,44.0,29.83,South,180,5.4,6.3,68,0.00,,,0.00,WUHU216HW,2013-04-29 22:56:00,
2013-04-29 18:57:00,54.4,44.0,29.83,SSE,158,4.0,6.3,68,0.00,,,0.00,WUHU216HW,2013-04-29 22:57:00,
2013-04-29 18:59:00,54.4,44.0,29.83,South,180,3.4,6.3,68,0.00,,,0.00,WUHU216HW,2013-04-29 22:59:00,
2013-04-29 19:01:00,54.2,44.3,29.84,South,180,3.8,6.3,69,0.00,,,0.00,WUHU216HW,2013-04-29 23:01:00,
2013-04-29 19:02:00,54.2,43.8,29.84,South,180,3.6,6.0,68,0.00,,,0.00,WUHU216HW,2013-04-29 23:02:00,
2013-04-29 19:03:00,54.2,44.3,29.83,SSE,158,4.3,6.0,69,0.00,,,0.00,WUHU216HW,2013-04-29 23:03:00,
2013-04-29 19:04:00,54.0,44.1,29.83,SSE,158,4.3,6.0,69,0.00,,,0.00,WUHU216HW,2013-04-29 23:04:00,
2013-04-29 19:06:00,54.0,44.1,29.83,SSE,158,2.9,6.0,69,0.00,,,0.00,WUHU216HW,2013-04-29 23:06:00,
2013-04-29 19:07:00,54.0,43.7,29.84,SSE,158,3.8,6.0,68,0.00,,,0.00,WUHU216HW,2013-04-29 23:07:00,
2013-04-29 19:09:00,53.8,43.9,29.84,SSE,158,5.8,6.0,69,0.00,,,0.00,WUHU216HW,2013-04-29 23:09:00,
2013-04-29 19:11:00,54.0,44.1,29.84,SSE,158,2.7,5.8,69,0.00,,,0.00,WUHU216HW,2013-04-29 23:11:00,
2013-04-29 19:12:00,53.8,43.9,29.84,South,180,4.0,5.8,69,0.00,,,0.00,WUHU216HW,2013-04-29 23:12:00,
2013-04-29 19:14:00,53.8,43.5,29.84,SE,135,2.9,5.8,68,0.00,,,0.00,WUHU216HW,2013-04-29 23:14:00,
2013-04-29 19:16:00,53.8,43.9,29.84,SSW,203,5.6,5.8,69,0.00,,,0.00,WUHU216HW,2013-04-29 23:16:00,
2013-04-29 19:18:00,53.8,43.9,29.84,East,90,2.7,5.8,69,0.00,,,0.00,WUHU216HW,2013-04-29 23:18:00,
2013-04-29 19:19:00,53.8,43.9,29.84,SSE,158,3.4,5.6,69,0.00,,,0.00,WUHU216HW,2013-04-29 23:19:00,
2013-04-29 19:20:00,53.6,43.8,29.84,South,180,4.3,5.6,69,0.00,,,0.00,WUHU216HW,2013-04-29 23:20:00,
2013-04-29 19:21:00,53.6,43.8,29.84,South,180,4.3,5.6,69,0.00,,,0.00,WUHU216HW,2013-04-29 23:21:00,
2013-04-29 19:23:00,53.6,43.8,29.84,SE,135,3.1,5.6,69,0.00,,,0.00,WUHU216HW,2013-04-29 23:23:00,
2013-04-29 19:24:00,53.6,43.8,29.84,SSE,158,4.5,7.4,69,0.00,,,0.00,WUHU216HW,2013-04-29 23:24:00,
2013-04-29 19:25:00,53.6,43.8,29.84,SSE,158,4.5,7.4,69,0.00,,,0.00,WUHU216HW,2013-04-29 23:25:00,
2013-04-29 19:27:00,53.5,43.6,29.84,SSE,158,4.5,7.4,69,0.00,,,0.00,WUHU216HW,2013-04-29 23:27:00,
2013-04-29 19:28:00,53.5,43.6,29.84,SSE,158,4.5,7.4,69,0.00,,,0.00,WUHU216HW,2013-04-29 23:28:00,
2013-04-29 19:29:00,53.5,43.9,29.84,SSE,158,3.4,7.4,70,0.00,,,0.00,WUHU216HW,2013-04-29 23:29:00,
2013-04-29 19:30:00,53.5,43.9,29.84,ESE,113,4.3,7.4,70,0.00,,,0.00,WUHU216HW,2013-04-29 23:30:00,
2013-04-29 19:33:00,53.5,43.9,29.84,South,180,4.7,5.6,70,0.00,,,0.00,WUHU216HW,2013-04-29 23:33:00,
2013-04-29 19:34:00,53.3,43.7,29.84,SSE,158,3.4,6.3,70,0.00,,,0.00,WUHU216HW,2013-04-29 23:34:00,
2013-04-29 19:35:00,53.3,44.1,29.84,SSE,158,4.9,6.3,71,0.00,,,0.00,WUHU216HW,2013-04-29 23:35:00,
2013-04-29 19:36:00,53.3,44.1,29.84,SSE,158,4.9,6.3,71,0.00,,,0.00,WUHU216HW,2013-04-29 23:36:00,
2013-04-29 19:38:00,53.3,43.7,29.84,SE,135,5.6,6.3,70,0.00,,,0.00,WUHU216HW,2013-04-29 23:38:00,
2013-04-29 19:39:00,53.3,43.7,29.84,SSE,158,4.3,6.3,70,0.00,,,0.00,WUHU216HW,2013-04-29 23:39:00,
2013-04-29 19:40:00,53.3,43.7,29.84,SSE,158,3.4,6.3,70,0.00,,,0.00,WUHU216HW,2013-04-29 23:40:00,
2013-04-29 19:41:00,53.3,43.7,29.84,SSE,158,3.4,6.3,70,0.00,,,0.00,WUHU216HW,2013-04-29 23:41:00,
2013-04-29 19:43:00,53.3,43.7,29.84,SSE,158,4.7,5.6,70,0.00,,,0.00,WUHU216HW,2013-04-29 23:43:00,
2013-04-29 19:44:00,53.1,43.7,29.84,SSE,158,4.5,5.6,70,0.00,,,0.00,WUHU216HW,2013-04-29 23:44:00,
2013-04-29 19:46:00,53.3,44.1,29.84,SSW,203,5.8,5.8,71,0.00,,,0.00,WUHU216HW,2013-04-29 23:46:00,
2013-04-29 19:49:00,53.1,44.0,29.84,SSE,158,4.7,5.8,71,0.00,,,0.00,WUHU216HW,2013-04-29 23:49:00,
2013-04-29 19:51:00,52.9,43.8,29.84,South,180,4.3,7.2,71,0.00,,,0.00,WUHU216HW,2013-04-29 23:51:00,
2013-04-29 19:54:00,52.9,43.8,29.84,SSE,158,4.5,7.2,71,0.00,,,0.00,WUHU216HW,2013-04-29 23:54:00,
2013-04-29 19:56:00,52.9,43.8,29.84,SSE,158,3.4,7.2,71,0.00,,,0.00,WUHU216HW,2013-04-29 23:56:00,
2013-04-29 19:57:00,52.9,43.8,29.84,SSE,158,3.4,7.2,71,0.00,,,0.00,WUHU216HW,2013-04-29 23:57:00,
2013-04-29 19:59:00,52.9,43.8,29.84,SSE,158,2.0,7.2,71,0.00,,,0.00,WUHU216HW,2013-04-29 23:59:00,
2013-04-29 20:01:00,52.7,43.7,29.84,SSE,158,1.1,5.1,71,0.00,,,0.00,WUHU216HW,2013-04-30 00:01:00,
2013-04-29 20:02:00,52.9,43.5,29.84,SSE,158,1.8,5.1,70,0.00,,,0.00,WUHU216HW,2013-04-30 00:02:00,
2013-04-29 20:04:00,52.7,43.7,29.84,SSE,158,4.7,5.1,71,0.00,,,0.00,WUHU216HW,2013-04-30 00:04:00,
2013-04-29 20:05:00,52.7,43.7,29.84,SSE,158,4.7,5.1,71,0.00,,,0.00,WUHU216HW,2013-04-30 00:05:00,
2013-04-29 20:07:00,52.7,43.7,29.85,SSE,158,4.7,5.1,71,0.00,,,0.00,WUHU216HW,2013-04-30 00:07:00,
2013-04-29 20:09:00,52.6,43.8,29.84,South,180,4.5,5.1,72,0.00,,,0.00,WUHU216HW,2013-04-30 00:09:00,
2013-04-29 20:10:00,52.6,43.8,29.84,South,180,4.5,4.9,72,0.00,,,0.00,WUHU216HW,2013-04-30 00:10:00,
2013-04-29 20:12:00,52.6,43.8,29.85,SSE,158,4.9,4.9,72,0.00,,,0.00,WUHU216HW,2013-04-30 00:12:00,
2013-04-29 20:14:00,52.6,43.5,29.85,SE,135,5.6,5.6,71,0.00,,,0.00,WUHU216HW,2013-04-30 00:14:00,
2013-04-29 20:15:00,52.6,43.5,29.85,SE,135,5.6,5.6,71,0.00,,,0.00,WUHU216HW,2013-04-30 00:15:00,
2013-04-29 20:17:00,52.4,43.3,29.85,South,180,2.5,5.8,71,0.00,,,0.00,WUHU216HW,2013-04-30 00:17:00,
2013-04-29 20:19:00,52.4,43.7,29.85,SSE,158,3.1,5.8,72,0.00,,,0.00,WUHU216HW,2013-04-30 00:19:00,
2013-04-29 20:20:00,52.4,43.7,29.85,SSE,158,3.1,5.8,72,0.00,,,0.00,WUHU216HW,2013-04-30 00:20:00,
2013-04-29 20:22:00,52.2,43.1,29.85,SE,135,3.1,8.9,71,0.00,,,0.00,WUHU216HW,2013-04-30 00:22:00,
2013-04-29 20:24:00,52.2,43.5,29.85,SSW,203,3.8,8.9,72,0.00,,,0.00,WUHU216HW,2013-04-30 00:24:00,
2013-04-29 20:25:00,52.2,43.5,29.85,SSW,203,3.8,8.9,72,0.00,,,0.00,WUHU216HW,2013-04-30 00:25:00,
2013-04-29 20:27:00,52.2,43.8,29.85,SSE,158,4.7,8.9,73,0.00,,,0.00,WUHU216HW,2013-04-30 00:27:00,
2013-04-29 20:28:00,52.2,43.8,29.85,SSE,158,4.7,8.9,73,0.00,,,0.00,WUHU216HW,2013-04-30 00:28:00,
2013-04-29 20:29:00,52.2,43.5,29.85,SSE,158,4.7,8.9,72,0.00,,,0.00,WUHU216HW,2013-04-30 00:29:00,
2013-04-29 20:30:00,52.2,43.5,29.85,SE,135,3.8,8.9,72,0.00,,,0.00,WUHU216HW,2013-04-30 00:30:00,
2013-04-29 20:32:00,52.2,43.5,29.85,South,180,4.7,7.6,72,0.00,,,0.00,WUHU216HW,2013-04-30 00:32:00,
2013-04-29 20:33:00,52.2,43.5,29.85,South,180,4.7,7.6,72,0.00,,,0.00,WUHU216HW,2013-04-30 00:33:00,
2013-04-29 20:34:00,52.0,43.3,29.85,SE,135,2.7,5.1,72,0.00,,,0.00,WUHU216HW,2013-04-30 00:34:00,
2013-04-29 20:35:00,52.0,43.3,29.85,SSE,158,5.4,5.4,72,0.00,,,0.00,WUHU216HW,2013-04-30 00:35:00,
2013-04-29 20:36:00,52.0,43.3,29.85,SSE,158,5.4,5.4,72,0.00,,,0.00,WUHU216HW,2013-04-30 00:36:00,
2013-04-29 20:38:00,52.0,43.3,29.85,SSE,158,3.8,5.4,72,0.00,,,0.00,WUHU216HW,2013-04-30 00:38:00,
2013-04-29 20:40:00,52.0,43.3,29.85,ESE,113,4.0,5.4,72,0.00,,,0.00,WUHU216HW,2013-04-30 00:40:00,
2013-04-29 20:41:00,52.0,43.3,29.85,SSW,203,2.7,5.4,72,0.00,,,0.00,WUHU216HW,2013-04-30 00:41:00,
2013-04-29 20:43:00,52.0,43.3,29.86,SSE,158,2.2,5.4,72,0.00,,,0.00,WUHU216HW,2013-04-30 00:43:00,
2013-04-29 20:45:00,52.0,43.3,29.86,SSE,158,3.8,5.4,72,0.00,,,0.00,WUHU216HW,2013-04-30 00:45:00,
2013-04-29 20:46:00,51.8,43.2,29.86,South,180,5.4,5.4,72,0.00,,,0.00,WUHU216HW,2013-04-30 00:46:00,
2013-04-29 20:48:00,51.8,43.2,29.86,SE,135,3.8,5.4,72,0.00,,,0.00,WUHU216HW,2013-04-30 00:48:00,
2013-04-29 20:50:00,51.8,43.2,29.86,SSE,158,5.4,5.6,72,0.00,,,0.00,WUHU216HW,2013-04-30 00:50:00,
2013-04-29 20:51:00,51.8,43.5,29.86,SSE,158,3.4,5.6,73,0.00,,,0.00,WUHU216HW,2013-04-30 00:51:00,
2013-04-29 20:53:00,51.8,43.2,29.86,SE,135,4.5,5.6,72,0.00,,,0.00,WUHU216HW,2013-04-30 00:53:00,
2013-04-29 20:55:00,51.8,43.5,29.86,ESE,113,3.1,5.6,73,0.00,,,0.00,WUHU216HW,2013-04-30 00:55:00,
2013-04-29 20:56:00,51.8,43.2,29.86,SSE,158,3.4,5.6,72,0.00,,,0.00,WUHU216HW,2013-04-30 00:56:00,
2013-04-29 20:58:00,51.8,43.2,29.86,SE,135,2.2,5.4,72,0.00,,,0.00,WUHU216HW,2013-04-30 00:58:00,
2013-04-29 21:00:00,51.8,43.2,29.86,SSE,158,3.4,4.7,72,0.00,,,0.00,WUHU216HW,2013-04-30 01:00:00,
2013-04-29 21:01:00,51.8,43.2,29.86,SSE,158,3.8,4.7,72,0.00,,,0.00,WUHU216HW,2013-04-30 01:01:00,
2013-04-29 21:03:00,51.7,43.0,29.86,SE,135,3.8,4.7,72,0.00,,,0.00,WUHU216HW,2013-04-30 01:03:00,
2013-04-29 21:05:00,51.7,43.0,29.86,SSE,158,3.6,4.7,72,0.00,,,0.00,WUHU216HW,2013-04-30 01:05:00,
2013-04-29 21:06:00,51.7,43.0,29.86,SE,135,3.8,4.7,72,0.00,,,0.00,WUHU216HW,2013-04-30 01:06:00,
2013-04-29 21:07:00,51.7,43.0,29.86,SSE,158,2.9,3.8,72,0.00,,,0.00,WUHU216HW,2013-04-30 01:07:00,
2013-04-29 21:09:00,51.7,43.0,29.87,SE,135,3.1,3.8,72,0.00,,,0.00,WUHU216HW,2013-04-30 01:09:00,
2013-04-29 21:10:00,51.7,43.0,29.87,SSE,158,3.4,4.0,72,0.00,,,0.00,WUHU216HW,2013-04-30 01:10:00,
2013-04-29 21:11:00,51.7,43.0,29.87,SSE,158,3.4,4.0,72,0.00,,,0.00,WUHU216HW,2013-04-30 01:11:00,
2013-04-29 21:12:00,51.7,43.0,29.86,ESE,113,5.4,5.4,72,0.00,,,0.00,WUHU216HW,2013-04-30 01:12:00,
2013-04-29 21:14:00,51.7,43.0,29.86,South,180,4.0,5.4,72,0.00,,,0.00,WUHU216HW,2013-04-30 01:14:00,
2013-04-29 21:15:00,51.7,43.0,29.86,SSE,158,3.6,5.4,72,0.00,,,0.00,WUHU216HW,2013-04-30 01:15:00,
2013-04-29 21:16:00,51.7,43.0,29.86,SSE,158,3.4,5.4,72,0.00,,,0.00,WUHU216HW,2013-04-30 01:16:00,
2013-04-29 21:18:00,51.7,43.0,29.86,SSE,158,5.6,5.6,72,0.00,,,0.00,WUHU216HW,2013-04-30 01:18:00,
2013-04-29 21:19:00,51.7,43.0,29.86,SSE,158,1.8,5.6,72,0.00,,,0.00,WUHU216HW,2013-04-30 01:19:00,
2013-04-29 21:20:00,51.7,43.0,29.86,SSE,158,2.9,5.6,72,0.00,,,0.00,WUHU216HW,2013-04-30 01:20:00,
2013-04-29 21:21:00,51.7,43.0,29.86,ESE,113,2.7,5.6,72,0.00,,,0.00,WUHU216HW,2013-04-30 01:21:00,
2013-04-29 21:23:00,51.7,43.0,29.86,SSE,158,1.8,5.6,72,0.00,,,0.00,WUHU216HW,2013-04-30 01:23:00,
2013-04-29 21:24:00,51.5,42.9,29.87,SW,225,2.5,5.6,72,0.00,,,0.00,WUHU216HW,2013-04-30 01:24:00,
2013-04-29 21:25:00,51.7,43.0,29.86,SE,135,2.2,5.6,72,0.00,,,0.00,WUHU216HW,2013-04-30 01:25:00,
2013-04-29 21:26:00,51.7,43.0,29.86,SE,135,2.2,5.6,72,0.00,,,0.00,WUHU216HW,2013-04-30 01:26:00,
2013-04-29 21:27:00,51.5,42.9,29.87,East,90,1.1,4.7,72,0.00,,,0.00,WUHU216HW,2013-04-30 01:27:00,
2013-04-29 21:28:00,51.5,42.9,29.87,SE,135,2.0,4.7,72,0.00,,,0.00,WUHU216HW,2013-04-30 01:28:00,
2013-04-29 21:29:00,51.5,42.9,29.87,SE,135,3.4,4.7,72,0.00,,,0.00,WUHU216HW,2013-04-30 01:29:00,
2013-04-29 21:31:00,51.5,42.9,29.87,SSE,158,2.5,4.7,72,0.00,,,0.00,WUHU216HW,2013-04-30 01:31:00,
2013-04-29 21:32:00,51.5,42.9,29.87,SE,135,1.8,4.7,72,0.00,,,0.00,WUHU216HW,2013-04-30 01:32:00,
2013-04-29 21:33:00,51.5,42.9,29.87,ESE,113,3.1,3.4,72,0.00,,,0.00,WUHU216HW,2013-04-30 01:33:00,
2013-04-29 21:34:00,51.5,42.9,29.87,SSE,158,3.4,3.4,72,0.00,,,0.00,WUHU216HW,2013-04-30 01:34:00,
2013-04-29 21:36:00,51.5,42.9,29.86,SE,135,3.4,3.4,72,0.00,,,0.00,WUHU216HW,2013-04-30 01:36:00,
2013-04-29 21:37:00,51.5,42.9,29.87,SE,135,2.5,3.4,72,0.00,,,0.00,WUHU216HW,2013-04-30 01:37:00,
2013-04-29 21:38:00,51.5,42.9,29.86,SSE,158,2.5,3.4,72,0.00,,,0.00,WUHU216HW,2013-04-30 01:38:00,
2013-04-29 21:39:00,51.5,42.9,29.87,SE,135,2.2,3.4,72,0.00,,,0.00,WUHU216HW,2013-04-30 01:39:00,
2013-04-29 21:41:00,51.5,42.9,29.87,SE,135,3.1,3.4,72,0.00,,,0.00,WUHU216HW,2013-04-30 01:41:00,
2013-04-29 21:42:00,51.5,42.9,29.86,SSE,158,3.4,3.4,72,0.00,,,0.00,WUHU216HW,2013-04-30 01:42:00,
2013-04-29 21:44:00,51.5,42.9,29.86,ESE,113,2.5,3.4,72,0.00,,,0.00,WUHU216HW,2013-04-30 01:44:00,
2013-04-29 21:45:00,51.5,42.9,29.86,ESE,113,2.5,3.4,72,0.00,,,0.00,WUHU216HW,2013-04-30 01:45:00,
2013-04-29 21:46:00,51.3,42.7,29.87,SSE,158,4.9,4.9,72,0.00,,,0.00,WUHU216HW,2013-04-30 01:46:00,
2013-04-29 21:47:00,51.3,42.7,29.87,SE,135,2.2,4.9,72,0.00,,,0.00,WUHU216HW,2013-04-30 01:47:00,
2013-04-29 21:49:00,51.3,42.9,29.86,SE,135,1.8,4.9,73,0.00,,,0.00,WUHU216HW,2013-04-30 01:49:00,
2013-04-29 21:50:00,51.3,42.9,29.86,SE,135,1.8,4.9,73,0.00,,,0.00,WUHU216HW,2013-04-30 01:50:00,
2013-04-29 21:51:00,51.3,43.3,29.86,SSE,158,3.1,4.9,74,0.00,,,0.00,WUHU216HW,2013-04-30 01:51:00,
2013-04-29 21:52:00,51.3,42.9,29.87,SE,135,2.5,4.9,73,0.00,,,0.00,WUHU216HW,2013-04-30 01:52:00,
2013-04-29 21:53:00,51.3,43.3,29.86,SE,135,2.7,4.9,74,0.00,,,0.00,WUHU216HW,2013-04-30 01:53:00,
2013-04-29 21:54:00,51.1,42.8,29.86,SSE,158,4.7,4.9,73,0.00,,,0.00,WUHU216HW,2013-04-30 01:54:00,
2013-04-29 21:55:00,51.1,43.1,29.86,SE,135,2.7,4.9,74,0.00,,,0.00,WUHU216HW,2013-04-30 01:55:00,
2013-04-29 21:56:00,51.1,43.1,29.86,SE,135,2.5,4.7,74,0.00,,,0.00,WUHU216HW,2013-04-30 01:56:00,
2013-04-29 21:57:00,51.1,42.8,29.86,SE,135,2.5,4.7,73,0.00,,,0.00,WUHU216HW,2013-04-30 01:57:00,
2013-04-29 21:58:00,51.1,43.1,29.86,SSE,158,4.3,4.7,74,0.00,,,0.00,WUHU216HW,2013-04-30 01:58:00,
2013-04-29 21:59:00,51.1,43.1,29.86,SSE,158,3.8,4.7,74,0.00,,,0.00,WUHU216HW,2013-04-30 01:59:00,
2013-04-29 22:00:00,50.9,43.3,29.87,SSE,158,3.8,4.7,75,0.00,,,0.00,WUHU216HW,2013-04-30 02:00:00,
2013-04-29 22:01:00,50.9,42.9,29.86,SE,135,2.7,4.7,74,0.01,,,0.00,WUHU216HW,2013-04-30 02:01:00,
2013-04-29 22:02:00,50.9,42.9,29.86,ESE,113,5.1,5.1,74,0.01,,,0.01,WUHU216HW,2013-04-30 02:02:00,
2013-04-29 22:03:00,50.9,43.3,29.87,ESE,113,1.8,5.1,75,0.01,,,0.01,WUHU216HW,2013-04-30 02:03:00,
2013-04-29 22:05:00,50.8,43.1,29.87,SE,135,2.7,5.1,75,0.01,,,0.01,WUHU216HW,2013-04-30 02:05:00,
2013-04-29 22:06:00,50.8,43.1,29.87,SSE,158,2.7,5.1,75,0.01,,,0.01,WUHU216HW,2013-04-30 02:06:00,
2013-04-29 22:07:00,50.8,43.1,29.87,SSE,158,2.0,5.1,75,0.01,,,0.01,WUHU216HW,2013-04-30 02:07:00,
2013-04-29 22:08:00,50.8,43.1,29.87,SE,135,2.5,5.1,75,0.01,,,0.01,WUHU216HW,2013-04-30 02:08:00,
2013-04-29 22:10:00,50.8,43.1,29.87,SE,135,3.4,5.4,75,0.01,,,0.01,WUHU216HW,2013-04-30 02:10:00,
2013-04-29 22:11:00,50.8,43.1,29.87,SE,135,2.9,5.4,75,0.01,,,0.01,WUHU216HW,2013-04-30 02:11:00,
2013-04-29 22:12:00,50.8,43.5,29.87,ESE,113,4.7,5.4,76,0.01,,,0.01,WUHU216HW,2013-04-30 02:12:00,
2013-04-29 22:13:00,50.8,43.5,29.87,SE,135,2.0,5.4,76,0.01,,,0.01,WUHU216HW,2013-04-30 02:13:00,
2013-04-29 22:15:00,50.8,43.5,29.87,SE,135,2.9,5.4,76,0.01,,,0.01,WUHU216HW,2013-04-30 02:15:00,
2013-04-29 22:16:00,50.8,43.1,29.87,SE,135,2.9,5.4,75,0.01,,,0.01,WUHU216HW,2013-04-30 02:16:00,
2013-04-29 22:17:00,50.8,43.5,29.87,SE,135,1.8,5.4,76,0.01,,,0.01,WUHU216HW,2013-04-30 02:17:00,
2013-04-29 22:18:00,50.6,42.9,29.87,SE,135,2.5,5.4,75,0.01,,,0.01,WUHU216HW,2013-04-30 02:18:00,
2013-04-29 22:21:00,50.6,43.7,29.87,SE,135,2.2,4.7,77,0.01,,,0.01,WUHU216HW,2013-04-30 02:21:00,
2013-04-29 22:22:00,50.6,43.7,29.87,SE,135,2.0,2.9,77,0.01,,,0.01,WUHU216HW,2013-04-30 02:22:00,
2013-04-29 22:23:00,50.6,43.3,29.87,SSE,158,2.0,2.9,76,0.01,,,0.01,WUHU216HW,2013-04-30 02:23:00,
2013-04-29 22:26:00,50.6,43.3,29.87,SE,135,1.6,2.9,76,0.01,,,0.01,WUHU216HW,2013-04-30 02:26:00,
2013-04-29 22:27:00,50.6,43.3,29.87,SE,135,1.6,2.9,76,0.01,,,0.01,WUHU216HW,2013-04-30 02:27:00,
2013-04-29 22:29:00,50.4,43.1,29.87,SE,135,2.5,3.6,76,0.01,,,0.01,WUHU216HW,2013-04-30 02:29:00,
2013-04-29 22:31:00,50.4,43.5,29.87,SSE,158,3.4,3.6,77,0.01,,,0.01,WUHU216HW,2013-04-30 02:31:00,
2013-04-29 22:32:00,50.4,43.5,29.87,SSE,158,3.4,3.6,77,0.01,,,0.01,WUHU216HW,2013-04-30 02:32:00,
2013-04-29 22:34:00,50.4,43.5,29.87,SE,135,2.2,3.6,77,0.01,,,0.01,WUHU216HW,2013-04-30 02:34:00,
2013-04-29 22:36:00,50.4,43.5,29.87,SSE,158,1.8,3.6,77,0.01,,,0.01,WUHU216HW,2013-04-30 02:36:00,
2013-04-29 22:37:00,50.4,43.5,29.87,SSE,158,1.8,3.6,77,0.01,,,0.01,WUHU216HW,2013-04-30 02:37:00,
2013-04-29 22:39:00,50.4,43.5,29.87,SE,135,1.8,3.4,77,0.01,,,0.01,WUHU216HW,2013-04-30 02:39:00,
2013-04-29 22:41:00,50.4,43.5,29.87,SE,135,2.2,3.8,77,0.01,,,0.01,WUHU216HW,2013-04-30 02:41:00,
2013-04-29 22:42:00,50.4,43.5,29.87,SE,135,2.2,3.8,77,0.01,,,0.01,WUHU216HW,2013-04-30 02:42:00,
2013-04-29 22:44:00,50.4,43.7,29.87,SE,135,3.4,3.8,78,0.01,,,0.01,WUHU216HW,2013-04-30 02:44:00,
2013-04-29 22:47:00,50.4,43.5,29.87,SE,135,1.8,3.8,77,0.01,,,0.01,WUHU216HW,2013-04-30 02:47:00,
2013-04-29 22:48:00,50.4,43.5,29.87,SSE,158,2.7,3.8,77,0.01,,,0.01,WUHU216HW,2013-04-30 02:48:00,
2013-04-29 22:49:00,50.4,43.7,29.87,South,180,3.1,3.8,78,0.01,,,0.01,WUHU216HW,2013-04-30 02:49:00,
2013-04-29 22:52:00,50.4,43.5,29.87,ESE,113,1.6,3.4,77,0.01,,,0.01,WUHU216HW,2013-04-30 02:52:00,
2013-04-29 22:53:00,50.4,43.7,29.87,SE,135,4.0,4.0,78,0.01,,,0.01,WUHU216HW,2013-04-30 02:53:00,
2013-04-29 22:54:00,50.4,43.7,29.87,ESE,113,1.8,4.0,78,0.01,,,0.01,WUHU216HW,2013-04-30 02:54:00,
2013-04-29 22:57:00,50.4,43.7,29.87,SSE,158,1.8,4.0,78,0.01,,,0.01,WUHU216HW,2013-04-30 02:57:00,
2013-04-29 22:58:00,50.4,43.7,29.87,SE,135,3.4,4.0,78,0.01,,,0.01,WUHU216HW,2013-04-30 02:58:00,
2013-04-29 23:00:00,50.4,43.7,29.87,SE,135,2.2,4.0,78,0.01,,,0.01,WUHU216HW,2013-04-30 03:00:00,
2013-04-29 23:03:00,50.4,43.7,29.87,SE,135,2.0,3.4,78,0.00,,,0.01,WUHU216HW,2013-04-30 03:03:00,
2013-04-29 23:05:00,50.4,43.7,29.87,SE,135,1.6,3.4,78,0.00,,,0.01,WUHU216HW,2013-04-30 03:05:00,
2013-04-29 23:08:00,50.2,43.6,29.87,SSE,158,1.3,3.4,78,0.00,,,0.01,WUHU216HW,2013-04-30 03:08:00,
2013-04-29 23:10:00,50.2,43.6,29.87,SE,135,2.7,3.4,78,0.00,,,0.01,WUHU216HW,2013-04-30 03:10:00,
2013-04-29 23:13:00,50.2,43.6,29.87,SE,135,1.8,2.7,78,0.00,,,0.01,WUHU216HW,2013-04-30 03:13:00,
2013-04-29 23:14:00,50.2,43.6,29.87,SE,135,1.8,2.7,78,0.00,,,0.01,WUHU216HW,2013-04-30 03:14:00,
2013-04-29 23:15:00,50.2,43.6,29.87,SE,135,1.8,2.7,78,0.00,,,0.01,WUHU216HW,2013-04-30 03:15:00,
2013-04-29 23:18:00,50.2,43.6,29.87,SE,135,1.8,2.7,78,0.00,,,0.01,WUHU216HW,2013-04-30 03:18:00,
2013-04-29 23:19:00,50.2,43.6,29.87,SE,135,1.8,2.7,78,0.00,,,0.01,WUHU216HW,2013-04-30 03:19:00,
2013-04-29 23:20:00,50.2,43.6,29.87,SE,135,1.8,2.0,78,0.00,,,0.01,WUHU216HW,2013-04-30 03:20:00,
2013-04-29 23:43:00,50.2,43.9,29.86,SE,135,2.7,2.7,79,0.00,,,0.01,WUHU216HW,2013-04-30 03:43:00,
2013-04-29 23:48:00,50.2,44.3,29.86,SE,135,1.8,3.4,80,0.00,,,0.01,WUHU216HW,2013-04-30 03:48:00,
2013-04-29 23:53:00,50.0,44.1,29.86,ESE,113,4.3,4.3,80,0.00,,,0.01,WUHU216HW,2013-04-30 03:53:00,
2013-04-29 23:54:00,50.2,44.3,29.86,SE,135,4.0,4.3,80,0.00,,,0.01,WUHU216HW,2013-04-30 03:54:00,
2013-04-29 23:58:00,50.0,44.1,29.86,ESE,113,2.9,4.3,80,0.00,,,0.01,WUHU216HW,2013-04-30 03:58:00,
2013-04-29 23:59:00,50.2,44.3,29.86,ESE,113,3.6,4.3,80,0.00,,,0.01,WUHU216HW,2013-04-30 03:59:00,